GEFSNE_500_meanwind_006.txt.gz
Wind_Speed
32 32 31 31 30 29 27 24 21 20 22 23 22 24 25 23 23 24 23 21 19 18 20 20 20 21 22 25 26 28 29 30 29 27 26 26 26 25
35 34 33 32 33 32 31 29 25 22 23 25 24 24 25 25 25 25 25 25 23 22 21 21 22 23 25 27 28 29 30 30 30 29 27 27 27 27
40 38 36 35 34 33 32 31 29 25 23 24 24 24 25 26 28 28 27 27 27 27 26 25 25 27 29 30 31 32 31 31 31 31 29 28 28 28
46 43 41 38 36 34 33 31 30 26 22 23 23 23 24 26 27 29 30 30 30 30 30 29 29 28 29 31 32 32 31 31 31 30 30 30 29 28
51 48 44 40 37 35 33 31 29 26 23 23 22 21 22 24 25 27 30 30 30 29 29 29 28 28 28 29 30 30 28 27 27 27 27 27 28 28
51 49 45 41 38 36 33 31 29 27 24 24 22 19 18 21 22 24 26 27 26 25 26 25 25 26 26 27 26 25 23 21 21 23 23 24 25 25
51 48 46 43 41 39 36 32 29 28 25 24 21 17 15 17 19 20 22 23 23 22 22 22 22 23 23 23 23 23 22 22 22 23 24 24 24 23
52 49 47 45 44 42 39 35 31 28 25 23 21 17 14 14 17 19 19 20 20 21 23 23 22 22 21 23 25 26 25 24 23 23 22 21 20 20
55 51 48 46 45 44 42 39 33 28 25 22 20 18 15 12 13 15 17 19 21 23 24 25 24 23 22 23 24 27 26 24 21 20 18 17 17 18
60 54 49 45 44 44 44 41 34 29 25 22 20 18 15 13 13 14 16 17 18 21 22 24 24 24 22 21 21 24 24 22 19 18 17 17 17 17
62 56 51 47 44 43 44 43 37 31 25 22 19 18 15 13 14 16 16 16 15 16 17 19 22 24 25 23 22 21 20 18 17 17 16 16 16 15
59 56 52 49 45 43 43 43 40 32 26 22 19 17 15 14 14 16 15 14 13 13 14 17 20 24 26 25 23 19 17 16 15 14 14 14 13 12
54 55 54 52 49 46 44 44 41 35 28 24 19 16 15 14 15 15 14 13 12 13 14 16 19 22 23 21 18 15 14 14 13 12 12 12 12 13
50 55 55 52 49 47 45 44 41 35 30 25 21 18 15 14 14 14 13 12 11 11 13 15 16 17 17 16 15 14 13 12 10 9 10 13 15 17
44 52 53 51 48 46 44 42 40 35 29 25 22 19 16 14 14 13 12 12 13 13 15 17 17 17 16 15 15 14 12 11 10 12 14 16 18 21
37 47 52 52 49 47 45 42 39 34 29 25 23 20 17 16 15 14 13 13 15 16 18 18 18 18 17 16 14 13 12 13 14 16 18 20 23 25
33 44 51 52 50 46 45 43 39 34 29 25 23 21 19 18 17 16 15 16 18 19 19 19 19 19 18 16 15 14 15 17 19 20 22 24 26 27
31 39 48 51 49 47 46 44 40 33 27 24 24 23 21 20 20 20 20 21 22 23 22 22 21 20 18 17 17 18 19 21 23 24 25 27 28 30
29 35 44 51 50 48 46 45 40 33 29 26 25 24 23 22 23 23 24 25 26 26 25 24 23 22 21 19 19 20 22 24 25 27 28 29 30 30
28 33 40 52 51 47 45 43 40 35 32 29 26 25 24 24 25 26 26 27 27 27 26 24 23 22 21 20 21 22 24 25 26 27 28 29 29 29
27 31 38 47 48 45 43 41 38 34 32 29 27 27 27 27 28 28 28 28 28 26 24 23 22 22 22 22 22 23 23 24 26 27 27 27 27 28
23 28 35 41 43 41 40 39 37 35 32 30 30 31 30 30 29 29 29 28 27 25 23 22 23 23 23 22 21 21 23 25 26 27 28 28 28 29
24 30 36 39 38 38 37 37 36 34 32 32 33 33 33 31 30 29 27 26 25 24 23 23 24 24 23 21 21 22 24 26 27 28 29 29 29 29

GEFSNE_500_meanwind_012.txt.gz
Wind_Speed
46 45 44 42 38 36 33 31 30 29 28 25 23 22 22 21 20 20 19 20 21 23 24 26 27 28 29 31 32 33 35 37 39 39 37 37 33 28
49 49 48 47 43 40 37 35 32 30 30 28 26 25 24 24 23 21 20 19 21 22 23 24 25 27 28 29 30 32 33 36 37 36 36 34 31 29
53 52 51 50 48 44 41 38 35 32 30 30 28 27 27 25 24 23 21 19 21 23 24 24 25 24 24 24 23 24 25 27 29 31 31 30 29 30
57 56 54 53 51 48 45 41 38 34 31 30 29 28 28 26 25 25 23 20 22 24 26 26 26 24 23 21 19 19 21 23 24 25 27 28 29 30
62 60 58 57 55 52 49 45 41 37 33 30 29 27 27 27 26 25 23 21 21 24 27 28 28 27 25 23 22 21 21 23 25 27 28 28 28 28
70 66 61 59 56 54 52 48 45 40 36 32 30 28 28 27 26 24 22 21 21 24 27 29 30 29 29 27 26 25 25 25 26 27 27 27 27 27
73 71 66 61 57 55 54 51 47 43 38 34 31 29 28 27 26 24 22 20 21 24 27 30 31 31 30 28 27 26 25 25 25 25 25 25 25 25
75 73 71 67 61 56 54 52 50 45 41 36 33 30 29 28 26 24 22 20 21 23 26 29 30 30 29 28 26 25 24 23 23 23 23 23 23 23
73 74 72 69 65 60 56 53 51 47 43 39 34 32 30 28 26 24 22 21 21 22 25 26 27 27 26 25 25 23 22 22 21 22 23 23 22 21
58 67 72 71 66 62 58 54 51 48 44 41 37 34 31 29 26 23 21 20 20 21 22 24 25 26 25 24 24 23 22 21 22 23 24 24 23 21
41 51 61 67 68 65 60 54 51 48 46 43 39 35 32 30 27 23 21 19 19 20 21 23 24 26 26 25 25 25 24 23 24 24 25 25 23 21
34 38 46 55 63 65 61 56 51 49 47 44 40 37 34 31 27 23 21 20 21 22 22 23 24 26 27 27 27 26 25 25 24 24 24 25 23 20
32 32 36 43 53 60 60 57 53 50 47 44 41 38 35 32 28 25 23 23 23 23 23 23 24 26 27 28 28 28 26 25 24 23 22 21 19 17
31 30 31 35 43 53 58 57 54 51 47 44 41 39 36 33 30 27 25 24 24 23 22 22 23 24 25 27 27 27 26 26 23 20 19 18 17 16
31 28 27 30 37 47 53 55 54 51 46 42 41 39 37 35 32 28 25 24 23 23 22 21 21 22 23 23 24 24 24 23 21 19 19 18 17 16
30 28 26 27 34 43 50 52 51 49 45 42 41 41 38 35 32 28 25 24 23 22 21 20 18 18 18 19 19 20 20 20 20 20 19 17 16 15
29 28 26 26 33 43 49 48 47 47 45 43 42 41 38 35 32 29 26 25 23 21 19 18 16 15 15 16 18 19 21 21 21 20 19 18 17 17
28 26 25 28 36 46 49 48 47 47 44 43 42 41 39 35 32 30 27 25 23 20 18 17 17 18 19 20 21 22 23 23 22 21 20 19 19 20
27 25 25 31 41 49 51 49 48 46 43 42 42 41 39 36 33 31 28 25 23 21 20 20 20 22 23 23 23 24 24 23 22 21 20 21 22 24
25 23 25 33 44 50 53 50 48 45 43 41 40 40 38 36 34 32 29 27 24 23 22 23 24 25 25 25 25 25 24 23 22 22 22 24 26 28
21 20 24 31 42 49 51 50 49 45 42 40 40 40 38 37 35 33 30 28 25 24 24 25 25 26 26 26 26 25 25 24 24 24 26 27 29 31
18 18 20 28 37 46 48 48 47 43 40 39 38 40 38 36 35 33 31 29 27 26 26 26 26 27 27 27 27 26 26 26 27 28 29 31 32 33
16 17 19 26 32 42 45 47 46 43 40 38 37 37 36 35 34 32 31 29 27 27 26 26 27 27 27 27 27 27 27 29 30 31 32 33 34 36

GEFSNE_500_meanwind_018.txt.gz
Wind_Speed
50 47 44 43 42 42 42 41 39 37 34 32 29 27 24 23 22 20 19 18 17 17 19 20 22 25 27 29 30 30 31 32 33 34 35 37 39 41
57 53 50 48 46 45 45 44 43 41 38 36 33 30 27 26 24 22 22 21 21 20 21 21 22 24 26 28 29 30 30 31 32 33 33 35 37 39
64 62 56 52 50 49 48 47 46 44 42 39 36 33 31 28 26 25 24 23 23 22 23 23 23 23 25 26 27 28 28 29 30 31 31 33 35 37
69 68 64 59 56 53 52 51 49 47 45 42 39 36 33 30 28 26 25 24 24 24 25 25 24 24 24 25 26 26 26 27 27 28 29 30 31 33
71 71 71 67 61 57 55 54 52 50 48 45 42 39 36 32 30 27 26 25 25 25 25 25 24 24 25 26 26 25 24 23 22 24 25 25 26 27
71 73 74 73 68 63 58 56 55 53 51 49 46 42 38 35 32 29 26 25 25 25 25 24 24 24 25 27 27 26 25 23 21 20 20 21 21 21
68 71 74 76 73 69 63 57 56 55 53 51 49 45 41 38 34 31 28 26 25 25 24 24 24 24 26 27 27 26 25 23 22 20 20 20 20 20
65 67 70 74 76 73 68 63 58 57 56 53 50 47 44 40 37 33 30 27 25 25 24 24 24 24 25 27 27 26 26 25 24 23 22 22 22 21
59 61 64 69 72 75 73 69 63 58 59 57 53 49 46 43 39 35 32 29 27 25 24 24 23 24 25 27 27 27 26 26 25 23 23 22 21 21
50 52 56 59 66 71 74 72 68 62 56 56 54 52 49 46 42 38 34 31 28 25 24 24 23 23 23 25 26 26 25 25 24 23 22 21 21 21
43 44 47 50 56 64 69 71 68 65 61 54 51 52 51 48 43 39 35 32 28 26 24 24 23 22 22 23 23 23 23 22 22 21 21 21 20 20
40 39 40 43 47 53 59 65 68 68 64 58 52 49 49 47 44 40 37 33 29 26 24 23 22 21 20 20 21 21 21 20 20 20 20 20 20 19
38 36 35 36 39 43 48 54 61 65 63 60 53 48 47 46 43 40 37 34 30 27 26 24 22 20 19 19 20 21 21 21 21 21 21 21 22 21
35 34 32 31 32 35 39 45 52 59 62 60 57 51 46 43 42 41 39 35 31 29 27 26 24 22 21 21 20 21 22 23 23 23 23 23 23 24
34 31 29 28 28 29 32 38 45 51 55 56 54 50 46 44 43 42 40 36 33 31 29 28 26 25 23 22 21 21 22 22 23 25 25 25 25 25
32 30 28 27 27 27 28 31 38 45 50 53 52 49 47 45 44 42 40 38 35 33 31 29 27 25 24 22 22 22 22 23 24 25 26 26 25 24
31 30 29 28 27 26 27 28 33 40 47 51 51 50 47 46 44 42 41 38 37 34 32 30 29 27 25 24 23 23 23 23 24 25 25 24 24 22
29 28 28 29 29 27 27 28 30 37 46 51 51 50 48 46 45 43 41 39 38 36 34 32 30 28 25 23 22 21 21 21 22 22 22 22 22 22
27 27 28 29 30 29 28 28 30 36 44 50 51 51 49 46 45 43 41 40 39 37 35 33 30 28 26 24 22 20 20 19 20 20 20 20 21 21
26 27 28 29 30 30 29 28 31 37 45 49 50 50 48 46 44 43 41 40 39 38 36 33 31 28 26 24 21 20 20 20 20 20 21 21 22 22
24 26 27 29 29 29 29 30 33 39 46 48 49 49 47 46 44 42 41 40 39 38 36 34 32 29 26 24 22 21 20 20 21 21 22 22 23 24
22 24 26 27 28 29 30 31 36 44 48 47 47 47 46 44 42 41 40 39 38 36 35 34 32 29 26 25 24 23 22 22 23 23 24 24 25 26
20 22 24 26 27 28 30 33 39 45 47 47 47 46 45 43 42 41 40 38 37 35 34 32 31 29 28 27 26 25 24 24 24 25 26 27 27 28

GEFSNE_500_meanwind_024.txt.gz
Wind_Speed
45 46 46 45 43 41 39 37 35 34 34 34 34 34 32 30 28 25 23 21 18 16 14 11 10 9 8 9 10 12 14 17 19 22 24 26 29 31
47 48 48 48 47 45 42 40 38 38 37 37 36 35 34 32 30 28 26 23 21 19 16 14 12 11 10 9 9 11 13 15 18 20 22 24 26 28
52 51 51 51 51 49 47 44 42 41 41 39 38 37 36 35 33 31 29 26 24 21 19 16 14 13 12 11 10 11 12 14 16 18 20 22 24 26
57 56 55 54 54 52 51 49 46 44 43 43 41 39 39 38 37 34 31 29 27 24 21 18 16 15 14 13 12 12 12 13 15 17 18 21 23 24
62 60 59 58 56 56 54 53 51 49 46 45 44 42 41 40 39 36 34 32 29 26 23 20 18 17 16 14 13 13 13 14 15 16 18 19 21 23
64 63 62 61 59 58 58 57 54 53 51 48 47 46 43 42 41 39 37 34 31 28 26 23 20 18 17 16 14 14 14 14 15 16 17 18 20 21
62 61 61 62 61 60 60 60 58 55 54 51 49 49 47 44 42 41 39 37 34 31 28 25 21 18 17 16 15 15 15 15 16 17 18 18 19 19
55 55 57 59 61 61 61 60 60 58 57 54 50 49 48 46 44 43 42 41 37 34 31 26 22 19 18 17 15 15 15 16 16 17 18 19 20 20
49 50 52 55 57 59 61 61 61 60 58 55 53 49 48 47 47 45 45 43 40 36 33 28 24 21 19 17 16 15 15 16 17 18 19 20 21 21
44 44 47 49 52 53 56 59 60 59 59 56 53 50 48 46 45 46 46 45 42 38 34 30 26 23 20 18 17 16 16 17 17 19 20 21 21 21
39 40 42 44 45 47 49 53 56 58 58 58 54 53 49 46 45 45 45 44 43 40 36 32 28 25 22 19 18 16 16 17 18 19 21 21 22 22
35 37 38 39 42 44 45 46 49 52 55 56 55 53 52 49 45 44 44 44 44 41 38 34 30 27 23 21 18 17 17 18 18 19 19 20 20 21
31 34 36 37 39 40 42 43 45 47 50 53 54 53 51 50 48 44 43 43 43 41 39 37 33 29 25 22 20 18 17 17 17 17 18 18 18 18
27 30 33 34 36 37 39 41 42 44 46 49 51 52 52 51 49 47 45 44 42 42 42 39 35 31 27 24 21 18 17 16 16 15 16 17 18 18
26 28 30 32 33 34 36 38 39 40 42 45 48 49 50 50 49 48 46 45 42 42 42 39 36 32 28 25 22 19 17 16 16 16 16 17 18 19
25 28 29 30 31 32 33 35 36 38 39 42 45 48 49 51 50 49 46 44 42 42 42 40 37 33 30 26 23 21 19 18 18 17 18 18 19 19
25 26 27 27 29 29 31 32 34 35 37 39 43 46 49 51 50 48 47 44 43 42 42 40 37 34 31 27 24 22 21 20 19 19 19 19 20 20
22 23 24 25 26 27 28 30 31 33 35 38 41 44 47 49 50 49 48 45 43 42 41 40 38 35 31 27 25 23 21 20 20 20 19 19 20 20
21 22 23 23 24 24 25 27 28 29 32 36 39 43 46 49 49 48 45 42 39 40 40 39 37 35 31 27 25 23 22 21 20 20 19 19 19 19
21 22 23 24 24 23 24 24 25 26 29 33 38 42 46 48 48 47 44 42 38 38 38 37 36 34 30 28 26 24 22 21 20 19 19 18 18 18
20 21 22 23 22 22 23 23 24 25 27 31 35 40 45 48 48 46 44 41 39 38 37 35 34 33 31 29 27 24 22 21 20 19 18 18 17 17
19 21 22 22 22 22 22 23 24 25 26 29 33 38 44 47 47 46 45 42 39 38 37 37 36 34 31 28 26 24 23 21 20 18 17 16 16 15
19 20 21 22 22 22 22 23 24 24 25 28 31 36 43 47 47 46 45 42 41 39 39 38 36 33 31 29 26 24 23 21 20 18 17 17 17 18

GEFSNE_500_meanwind_030.txt.gz
Wind_Speed
36 37 37 38 39 41 41 39 36 34 33 33 34 36 38 39 40 40 40 39 37 35 33 31 30 29 28 27 26 25 25 24 25 25 26 26 26 27
39 39 40 41 41 41 43 43 41 38 35 35 35 37 39 41 42 43 42 40 38 36 34 32 30 29 27 26 25 24 23 22 23 23 24 25 25 26
42 43 43 45 45 44 44 45 44 43 40 38 38 38 41 43 44 45 43 42 40 38 36 33 31 30 28 25 24 22 21 20 20 21 21 22 23 24
44 45 46 48 49 49 48 47 47 47 44 42 42 41 41 44 45 46 45 44 42 41 38 35 33 31 28 26 23 21 20 19 19 19 19 20 22 23
48 48 49 50 52 53 53 52 50 49 49 47 45 44 44 45 47 47 46 45 44 42 40 38 35 32 29 27 24 22 20 19 18 18 18 19 20 21
51 51 52 53 54 56 57 57 55 53 52 51 48 46 47 47 48 48 47 47 45 44 42 40 37 34 31 28 26 23 20 19 18 17 18 18 19 20
52 53 53 54 55 58 60 61 60 58 56 55 53 50 49 49 48 48 48 48 47 45 43 42 40 37 33 30 26 24 22 20 18 17 18 18 19 20
50 52 54 54 55 57 60 63 64 63 60 59 56 54 51 49 49 48 49 49 48 47 45 43 42 38 35 31 27 24 22 21 19 18 18 19 19 20
47 49 51 52 54 56 59 63 66 67 65 63 60 57 54 51 50 49 49 50 49 48 47 44 43 40 37 32 28 25 23 21 19 19 19 19 19 20
45 47 48 50 52 54 57 62 66 68 68 65 62 59 58 54 51 49 50 51 50 49 48 45 44 41 38 34 30 26 24 21 20 19 19 19 19 20
43 43 44 47 50 52 55 60 65 68 70 69 67 63 61 58 54 52 51 51 50 49 48 46 45 43 40 36 32 28 25 23 21 20 19 19 19 19
36 38 40 43 46 49 52 57 63 67 70 71 68 65 62 60 56 53 51 49 49 48 48 48 46 44 41 38 34 30 27 24 22 20 20 19 19 19
29 30 32 37 41 45 49 53 59 64 68 70 69 67 64 61 58 55 51 49 49 48 49 50 49 46 43 39 36 32 29 25 23 21 20 19 19 19
20 22 25 30 35 40 44 49 54 59 64 67 68 66 64 60 58 56 52 49 49 48 50 52 51 48 45 42 38 34 31 27 24 22 21 20 19 19
12 14 19 25 29 35 40 46 49 53 59 63 64 63 62 60 58 56 53 51 50 49 49 50 51 50 47 43 40 37 33 29 26 24 22 21 20 19
5 8 15 21 26 32 37 42 44 47 52 56 59 60 60 60 58 56 53 51 49 48 48 49 50 50 48 45 42 38 35 31 27 25 23 22 21 20
2 7 13 18 22 28 32 36 40 44 46 50 55 58 59 58 57 57 54 51 49 46 46 47 49 51 50 47 43 39 36 32 29 27 25 24 23 21
4 8 12 16 20 25 31 33 37 41 42 47 51 54 57 58 57 57 55 52 49 47 45 44 46 48 49 47 43 39 37 34 31 29 27 26 24 23
5 8 11 15 19 24 28 31 34 37 39 43 47 51 55 57 57 56 54 52 49 48 46 43 44 45 47 46 43 41 38 36 33 30 29 28 26 24
6 8 11 14 17 20 23 28 32 34 36 40 44 48 52 55 57 56 54 53 51 49 46 44 42 42 43 45 45 43 41 37 34 32 31 29 27 25
6 9 11 13 15 17 20 24 27 30 34 38 42 46 49 53 55 56 55 53 51 49 47 44 42 42 43 45 45 43 40 37 35 33 31 29 27 26
8 10 12 14 15 17 19 21 24 27 30 35 40 45 48 51 54 56 56 54 51 50 48 46 44 42 42 42 43 42 40 38 35 33 31 29 28 27
10 12 13 15 16 17 18 20 21 23 26 30 35 41 46 50 52 54 56 54 53 52 50 47 45 43 42 42 42 42 40 38 35 33 31 30 29 28

GEFSNE_500_meanwind_036.txt.gz
Wind_Speed
39 39 39 39 39 40 41 42 43 43 42 41 41 40 39 39 39 40 41 42 41 42 42 42 42 40 39 36 35 34 32 31 31 30 30 30 30 30
40 41 41 41 41 42 42 43 44 44 44 43 43 42 41 39 39 39 42 43 43 42 42 42 42 40 38 37 35 34 32 31 30 30 29 29 29 29
39 40 42 43 44 44 44 44 45 46 46 46 45 44 43 42 41 40 41 43 44 44 43 43 42 41 39 37 36 34 33 31 30 29 28 28 28 28
38 40 41 43 45 46 47 47 47 47 47 48 48 47 45 44 43 42 42 43 44 44 44 43 41 40 39 38 36 35 33 31 30 28 27 27 26 26
38 39 40 42 44 46 47 48 49 49 49 49 50 50 48 45 44 43 42 42 43 44 44 43 42 40 39 37 36 35 33 31 30 28 27 25 24 24
39 40 41 43 44 46 47 49 50 51 51 51 52 53 52 49 48 45 45 44 43 44 44 44 42 40 39 38 37 35 33 31 29 27 26 24 23 23
40 41 43 44 46 47 49 51 52 53 53 53 53 54 54 53 51 48 47 46 46 45 45 44 42 41 40 39 37 36 33 31 29 27 25 24 23 22
39 41 43 44 46 48 50 52 54 55 55 55 56 55 56 56 54 51 49 48 48 47 47 46 44 42 40 40 38 36 34 32 30 28 26 24 23 22
39 41 43 45 47 48 50 52 55 57 58 59 58 58 58 58 56 54 50 48 48 48 48 47 46 44 42 41 39 37 35 33 31 29 26 24 23 22
40 41 43 45 47 49 50 51 54 57 59 61 61 61 61 61 59 56 53 50 50 50 50 49 48 46 44 42 41 39 37 35 32 30 28 26 24 23
39 39 40 43 46 49 50 51 53 56 59 62 64 64 64 63 62 60 57 53 51 50 50 50 49 47 46 44 42 41 39 36 34 31 29 27 25 24
36 36 38 40 43 46 49 50 52 54 58 61 65 66 67 66 65 62 59 55 51 51 51 51 50 49 47 46 44 42 40 38 36 33 31 28 26 24
32 33 34 35 37 41 45 48 50 54 58 60 64 67 68 68 67 64 61 57 52 50 51 52 51 50 49 47 46 44 42 40 38 35 32 30 27 25
29 30 30 31 33 35 38 42 47 52 56 60 62 66 68 68 68 66 63 60 55 51 50 51 51 51 51 49 48 46 45 43 40 36 33 31 28 25
27 26 26 26 26 27 30 34 40 46 52 57 60 63 67 68 68 67 65 62 58 54 51 52 52 53 53 52 50 48 46 44 42 38 35 32 29 26
24 22 21 20 19 19 23 27 33 39 46 52 57 61 64 68 68 67 66 62 59 56 51 50 51 52 53 53 51 49 47 45 43 40 37 34 31 28
21 19 18 16 14 13 15 20 25 32 40 46 52 58 62 65 67 67 66 64 61 57 54 50 50 52 52 53 52 50 48 45 43 41 38 35 32 29
19 17 16 13 9 7 9 14 19 26 33 40 47 52 56 61 65 65 64 63 61 58 55 51 50 51 52 52 52 50 48 46 44 42 39 36 33 30
16 15 13 10 6 3 5 10 16 22 29 35 41 46 50 56 61 62 62 61 59 57 56 53 49 49 49 50 49 49 48 46 44 43 41 38 35 32
14 12 10 7 4 1 5 9 13 19 25 31 36 40 45 50 55 57 59 59 57 56 56 53 49 46 46 48 48 49 49 47 45 44 42 40 36 33
12 10 8 5 2 1 5 8 12 17 23 28 31 35 39 45 50 53 56 56 55 55 53 51 49 46 46 46 47 49 50 50 48 47 44 40 36 34
10 8 6 3 0 3 5 7 12 16 21 25 28 31 35 40 46 50 53 54 54 53 50 49 48 46 45 45 45 46 47 49 49 47 44 40 37 35
9 7 5 3 2 3 5 7 10 14 18 22 27 30 33 37 42 47 49 52 53 52 50 48 47 45 44 44 44 45 45 46 46 45 43 40 38 35

GEFSNE_500_meanwind_042.txt.gz
Wind_Speed
36 37 39 40 41 41 42 43 43 44 45 44 42 43 43 43 42 42 42 41 41 42 43 44 45 45 44 44 42 41 40 38 36 35 33 32 30 30
36 37 38 40 41 42 43 44 45 46 46 46 46 44 45 44 44 44 43 42 41 42 43 44 45 45 45 45 44 42 41 39 37 36 34 32 31 30
36 37 37 39 40 42 43 44 45 47 47 47 49 48 47 47 45 45 44 44 43 42 42 43 45 45 45 45 45 43 42 40 38 37 35 33 31 30
36 37 37 38 39 40 42 43 44 46 47 48 49 50 49 49 48 46 46 45 44 43 43 43 44 44 45 44 45 44 42 40 39 37 35 33 31 30
36 36 36 37 38 39 40 42 43 45 47 48 48 50 50 50 50 49 47 46 45 43 43 43 43 43 44 44 43 43 42 41 39 37 35 33 31 30
36 35 35 36 37 38 39 40 42 44 45 47 48 49 50 50 50 49 49 47 46 45 44 44 44 44 44 45 44 44 43 42 40 38 36 33 31 30
35 35 35 35 36 37 38 40 41 43 45 47 48 50 50 51 51 50 49 48 47 46 45 45 44 44 44 44 45 44 44 43 41 39 36 34 32 30
35 35 35 34 35 36 38 40 42 43 45 47 48 50 51 52 52 52 51 50 49 47 47 46 44 44 44 45 44 44 43 43 42 39 36 34 32 30
34 34 34 34 35 35 37 39 41 43 45 47 49 50 51 52 53 53 53 52 50 49 48 47 46 44 44 44 44 44 42 41 40 39 36 34 33 31
32 33 33 34 35 36 37 38 40 42 45 47 49 51 53 54 54 54 54 53 52 50 49 48 48 46 44 43 44 44 42 41 39 39 37 35 33 32
31 31 32 33 34 35 36 38 39 41 44 46 49 51 53 55 56 56 56 55 53 52 50 48 47 47 45 44 43 43 43 42 41 40 38 36 34 33
31 32 32 33 34 35 35 36 37 39 42 45 48 50 53 55 57 58 58 57 55 53 51 50 47 47 46 44 44 44 44 43 42 41 39 37 35 33
30 30 31 31 32 33 33 34 35 38 41 43 46 49 53 55 57 59 59 59 57 55 53 50 49 47 46 45 44 44 44 44 43 41 40 38 36 34
29 29 29 29 29 31 32 33 35 37 39 42 45 48 51 53 56 59 60 60 59 57 55 53 51 48 46 45 45 44 44 44 43 42 41 39 38 35
27 27 27 28 28 28 29 30 32 35 38 41 43 47 50 53 56 58 60 61 61 59 57 55 52 49 46 46 46 46 45 44 44 43 42 41 39 36
27 26 26 26 27 26 27 29 30 32 35 38 41 45 49 52 55 58 60 61 62 61 59 56 53 51 48 46 46 47 47 46 45 45 44 42 40 37
26 25 25 25 25 25 26 27 29 30 32 35 39 43 47 51 54 58 60 62 62 62 60 58 55 52 50 47 47 48 48 48 47 46 45 43 41 38
25 24 24 24 23 24 24 25 25 26 27 30 35 40 44 49 52 56 60 61 62 62 61 59 56 53 52 49 48 48 49 49 48 47 46 44 42 39
24 22 22 21 21 22 22 22 21 21 22 24 28 34 40 45 49 54 58 60 61 61 61 60 58 54 51 49 48 49 49 49 49 48 47 45 43 40
22 21 20 20 19 20 20 19 17 17 18 20 23 28 34 40 45 51 55 58 59 60 60 60 58 56 51 49 47 48 49 49 48 48 48 46 44 41
21 19 19 19 18 17 17 16 14 13 14 16 18 23 30 36 41 47 52 55 57 57 58 58 57 57 55 51 49 48 48 49 50 49 48 47 45 42
20 19 18 17 16 14 14 13 12 11 10 12 14 19 26 32 38 43 48 52 55 54 55 56 57 56 55 53 49 48 47 48 49 51 50 48 45 42
20 18 17 16 14 13 12 11 11 9 8 11 14 18 23 29 35 41 45 49 51 52 53 54 56 55 54 53 51 49 47 47 49 50 50 48 45 44

GEFSNE_500_meanwind_048.txt.gz
Wind_Speed
36 37 37 38 38 38 38 38 38 38 38 39 40 39 39 39 39 39 39 39 39 39 40 40 41 43 44 44 45 46 46 46 46 44 42 39 36 34
39 39 40 40 40 41 41 41 41 40 40 41 42 42 41 40 40 41 42 41 40 39 40 40 41 43 43 43 44 46 46 47 47 46 44 42 39 37
41 41 41 41 41 42 42 42 42 42 42 41 43 43 42 42 41 42 42 42 42 41 41 41 41 42 43 43 44 46 46 46 47 47 45 44 41 39
40 41 41 41 41 42 42 43 43 43 43 42 43 44 44 43 42 43 44 43 43 41 41 42 42 42 42 43 44 45 46 46 47 48 47 46 43 41
40 39 39 39 40 40 41 41 41 42 42 42 42 43 44 44 43 44 44 45 44 42 41 41 42 42 42 43 43 45 46 47 47 47 48 47 45 43
39 38 37 37 37 38 38 38 39 40 40 41 41 42 43 44 44 44 45 45 46 45 44 41 40 41 41 42 42 43 45 47 47 48 47 47 46 45
37 36 36 35 35 36 36 36 37 37 38 39 39 40 41 42 43 44 45 45 45 45 45 44 42 42 41 41 41 42 44 45 46 47 47 48 47 45
36 35 34 34 33 33 34 34 35 35 36 38 38 39 40 41 42 42 44 44 44 45 46 45 44 43 43 42 41 41 42 44 46 47 48 48 48 46
35 34 33 32 32 31 32 33 33 34 35 36 37 38 40 41 41 42 43 44 44 45 46 45 44 42 42 43 42 42 41 41 44 46 47 48 48 46
34 33 32 31 31 30 30 31 32 33 34 35 36 38 40 41 42 42 42 43 44 45 45 45 44 43 41 42 43 42 41 41 42 44 46 47 47 46
33 33 31 30 30 30 30 31 31 32 34 34 35 36 37 39 41 42 42 43 44 45 45 45 45 43 41 41 42 42 41 40 40 43 45 46 46 46
33 32 31 30 30 31 31 31 31 32 33 34 35 35 37 39 40 41 42 43 44 45 45 45 45 44 42 41 41 42 42 41 40 41 43 46 46 45
32 32 31 31 31 32 32 32 32 32 33 34 35 35 36 38 39 40 42 43 44 45 46 46 45 44 43 41 42 41 41 41 40 40 41 44 45 45
32 32 31 31 32 32 32 32 32 32 32 33 33 34 35 36 38 39 40 42 44 45 48 48 47 45 44 43 41 42 42 41 41 40 40 42 44 43
32 32 32 32 31 31 32 32 32 32 32 32 32 33 34 35 36 38 39 41 43 46 47 49 48 46 44 44 43 42 41 42 42 41 40 41 42 42
32 32 32 32 32 31 31 30 30 30 30 31 31 31 32 33 34 36 39 41 43 45 47 49 50 48 45 43 44 44 42 42 42 42 42 42 42 43
32 32 32 32 32 31 30 29 28 28 27 27 28 29 30 31 33 35 37 40 42 44 47 49 51 50 47 44 43 43 43 42 42 42 43 43 43 44
32 32 31 31 30 29 28 27 27 26 26 26 26 27 29 31 32 34 36 38 40 43 47 49 51 52 51 48 45 43 43 43 42 43 42 43 43 44
32 31 30 29 28 28 27 26 26 26 25 25 26 26 28 29 31 33 35 37 39 42 46 49 51 53 52 51 47 45 44 43 43 43 43 44 44 44
31 30 28 28 27 26 26 25 25 25 25 25 25 26 27 28 30 32 34 36 39 42 46 49 51 52 52 51 49 46 44 43 43 43 44 46 46 46
30 28 27 27 26 26 25 25 24 24 24 25 24 25 25 27 28 30 33 35 38 41 45 48 50 51 51 52 50 48 46 44 42 42 44 47 47 46
28 27 27 27 27 26 26 25 24 23 23 23 23 23 23 24 25 28 31 34 36 40 43 47 49 50 51 51 51 49 47 45 43 42 44 47 47 46
27 27 27 27 27 25 25 23 23 22 22 22 21 21 20 21 22 24 27 31 34 38 42 46 48 49 50 51 51 50 48 46 45 44 44 45 48 49

GEFSNE_500_meanwind_054.txt.gz
Wind_Speed
28 28 29 29 30 31 31 32 32 33 35 36 36 35 35 35 36 36 38 38 39 39 40 40 41 42 42 42 43 45 47 47 47 46 45 43 41 39
30 31 31 32 32 33 33 34 34 35 36 38 39 39 39 38 38 38 39 40 41 41 41 41 42 42 43 44 44 45 46 47 48 48 48 46 44 42
33 33 33 34 34 35 35 35 36 36 35 38 40 41 41 41 41 41 41 42 43 43 43 43 43 43 43 43 43 45 46 47 48 48 48 47 46 45
34 34 35 35 36 36 35 35 35 36 35 36 38 41 42 43 42 43 43 44 44 45 45 45 44 44 44 43 43 44 45 46 48 49 49 48 47 46
36 36 36 36 36 36 35 35 35 35 35 34 36 39 40 42 43 43 44 45 46 46 46 47 46 46 45 45 44 44 44 46 47 48 48 48 48 48
37 38 38 37 37 36 35 35 35 34 34 34 34 37 38 40 41 41 43 44 45 47 47 47 47 46 46 46 45 45 45 45 46 48 48 48 48 49
39 39 39 39 38 37 36 35 35 34 34 34 34 35 36 38 39 40 41 42 44 46 46 47 47 47 47 46 46 46 45 46 46 47 47 48 49 49
39 40 39 39 38 37 36 36 35 34 33 33 32 33 34 36 37 38 39 41 42 45 46 47 48 48 48 47 47 46 45 45 45 46 47 48 49 49
40 40 40 40 39 37 36 35 35 34 33 32 32 32 33 34 35 36 38 39 40 43 45 46 48 48 49 49 48 47 46 45 45 45 46 46 47 48
41 41 40 40 39 38 36 35 34 34 33 32 31 32 33 34 34 35 36 38 39 42 44 44 47 48 49 50 50 48 47 46 45 45 46 46 46 48
41 41 40 39 39 38 36 35 34 34 34 33 32 32 33 33 34 34 35 37 38 41 43 43 45 48 49 50 50 49 48 47 46 45 46 46 46 47
42 42 41 40 38 37 36 35 34 34 34 34 33 33 33 33 34 34 34 35 37 39 42 43 44 47 47 49 50 51 49 47 46 46 46 45 45 46
43 43 42 40 38 37 35 35 35 34 34 33 34 34 34 34 34 35 35 35 36 38 41 43 44 46 46 48 50 51 51 49 47 47 46 46 45 45
44 43 41 40 38 37 36 36 35 34 33 33 33 33 34 35 35 36 36 36 36 38 41 43 43 45 46 47 48 50 51 50 48 47 46 46 46 45
44 42 41 39 38 37 36 35 34 34 33 33 33 33 34 34 34 35 36 37 37 38 40 43 44 45 46 47 48 49 50 50 48 46 46 46 46 45
44 42 40 39 38 37 36 35 34 34 33 32 32 32 32 32 33 34 35 36 37 38 39 42 44 45 45 46 47 48 49 49 49 47 47 47 46 45
43 41 39 38 37 35 35 34 34 33 31 30 30 30 30 31 31 32 33 34 35 36 38 40 42 44 45 46 46 48 49 49 49 49 48 48 48 46
43 40 39 38 36 35 34 33 32 31 30 29 29 29 30 30 30 31 31 32 33 35 37 39 41 43 45 46 46 46 48 48 48 48 47 47 47 46
42 39 38 37 35 34 33 32 31 30 29 29 29 29 29 30 30 30 30 30 30 32 35 37 40 42 44 46 47 48 47 48 49 49 48 47 47 47
40 38 36 35 34 33 32 31 30 29 28 28 28 28 28 28 28 29 29 30 31 32 33 36 37 40 43 46 48 50 49 48 48 49 48 47 48 48
38 36 35 34 33 32 31 29 28 28 28 27 27 27 27 27 27 27 28 29 31 32 33 34 37 39 42 45 47 49 50 50 48 48 49 48 47 47
35 34 34 33 32 31 30 29 28 27 27 26 26 25 26 26 26 27 27 29 30 31 32 34 37 39 40 42 45 47 50 51 49 48 48 48 47 47
33 32 32 31 31 30 29 28 27 27 26 26 25 24 24 25 26 26 27 28 29 30 32 34 36 38 40 42 44 47 49 51 50 48 47 46 45 46

GEFSNE_500_meanwind_060.txt.gz
Wind_Speed
22 23 23 23 23 23 23 24 24 25 26 27 28 29 30 32 34 35 36 36 36 37 38 38 38 39 40 41 42 42 42 44 45 45 46 46 45 43
24 25 25 26 26 26 25 25 26 26 28 30 30 30 31 32 34 36 38 39 40 40 40 40 41 41 41 42 43 44 44 44 44 45 46 48 48 47
26 27 27 28 28 27 28 28 28 28 29 30 31 32 32 33 34 36 38 40 42 43 43 44 44 44 44 43 43 44 45 45 45 46 46 47 49 49
29 29 30 30 30 30 30 29 29 29 29 30 32 33 34 34 34 35 37 39 41 44 45 46 47 46 47 46 46 45 46 46 47 46 47 47 48 49
30 31 32 32 32 32 32 31 31 31 31 31 32 34 35 36 36 36 36 38 40 42 45 47 49 50 49 49 49 48 48 47 47 48 47 47 48 49
33 33 34 33 34 34 33 33 33 33 33 33 34 35 36 37 38 37 37 38 39 41 43 46 49 51 52 52 51 50 50 49 48 49 49 48 48 49
36 36 35 35 36 35 35 35 35 35 35 35 35 36 37 38 38 38 38 38 39 40 42 45 47 49 52 53 54 53 52 52 51 50 50 50 49 49
38 38 38 38 38 37 37 37 37 37 37 37 37 37 37 39 39 38 38 38 38 40 41 43 46 48 50 52 54 55 54 53 52 52 51 51 51 50
40 40 40 39 39 39 39 39 39 39 39 39 38 38 39 39 39 38 38 38 38 39 40 40 43 45 48 50 52 54 55 55 55 54 53 52 52 51
42 42 42 41 42 42 41 41 41 41 41 40 39 39 39 40 39 39 39 38 38 39 40 39 41 43 46 48 49 51 53 55 55 56 54 53 53 51
45 44 44 44 44 44 43 42 42 43 43 41 40 39 40 40 40 39 39 39 38 39 40 39 40 42 44 46 48 50 52 53 55 55 55 54 54 53
47 47 47 47 46 47 46 44 43 44 44 42 41 40 40 40 40 40 39 39 38 38 40 40 40 41 41 43 46 49 51 52 53 55 55 55 55 54
51 50 50 50 49 49 48 47 45 45 44 43 41 41 40 40 40 40 39 39 38 38 40 41 40 40 40 41 43 46 49 51 52 53 55 55 55 55
54 53 53 53 52 51 50 49 48 46 44 42 41 40 40 40 41 40 39 39 38 38 39 41 40 41 41 40 41 44 47 49 50 52 54 55 55 55
58 57 57 56 55 53 52 51 49 47 45 42 41 40 41 41 41 40 40 39 39 39 39 40 41 41 42 41 41 43 45 47 49 50 52 54 55 54
62 61 60 59 57 55 53 51 49 47 45 43 41 41 41 40 40 39 39 39 39 38 39 40 41 41 42 42 41 41 43 45 48 49 50 52 52 53
65 64 61 60 58 55 53 51 50 47 46 43 42 41 40 40 40 40 39 39 37 37 38 39 40 40 41 42 41 42 43 45 47 49 50 50 51 52
66 64 61 58 56 54 52 51 49 48 47 45 42 41 41 40 39 39 38 37 36 36 37 39 39 40 40 40 41 42 43 45 46 48 49 49 50 51
65 62 59 57 54 52 51 50 48 47 46 45 43 41 40 39 38 37 36 35 35 36 37 38 38 38 38 38 40 41 42 44 45 46 47 48 49 51
62 59 56 54 52 51 49 47 46 45 45 43 41 39 37 37 36 35 35 35 35 35 35 36 36 37 37 37 38 39 40 41 43 44 46 47 48 49
57 54 52 50 49 48 47 45 43 42 42 41 39 38 36 35 35 34 34 33 33 33 33 33 35 36 36 36 35 36 39 40 41 43 44 46 47 47
48 46 46 45 45 43 42 41 41 40 39 38 37 36 35 35 34 34 33 33 33 32 32 32 33 34 34 33 33 34 36 38 40 42 43 45 46 47
38 38 37 38 39 39 38 37 36 35 36 35 34 33 33 33 33 33 32 32 32 31 31 32 32 32 32 31 32 33 34 37 39 40 42 44 45 46

GEFSNE_500_meanwind_066.txt.gz
Wind_Speed
18 18 19 19 19 20 21 21 22 23 23 22 22 23 24 25 26 27 28 29 30 31 32 32 33 34 34 35 36 36 37 38 39 41 43 44 46 46
21 21 21 22 22 22 23 24 24 25 25 26 25 25 25 26 27 28 29 30 30 31 32 34 35 36 37 37 38 38 39 39 40 40 42 44 45 47
23 23 23 23 24 24 24 25 25 26 26 27 27 27 27 26 27 28 29 30 31 32 33 34 35 37 38 39 40 40 41 41 42 42 42 43 44 46
26 25 25 25 25 25 26 26 26 27 28 28 29 28 28 28 27 28 28 29 31 32 33 34 35 36 38 39 41 42 43 44 44 44 44 44 45 46
28 28 28 27 28 28 28 28 28 29 29 29 30 30 30 31 30 30 30 30 31 32 33 35 36 37 38 39 41 42 44 46 46 47 47 46 46 47
30 30 30 30 30 31 31 31 31 31 31 31 31 32 32 33 33 33 33 33 33 34 35 36 37 38 39 39 41 42 44 45 47 48 49 49 49 49
32 32 33 33 33 34 34 34 34 33 33 33 33 33 34 35 35 34 34 34 34 35 36 37 38 38 39 40 41 41 43 44 46 48 50 51 51 50
35 35 36 36 37 37 37 38 37 37 36 36 36 36 36 37 36 36 36 36 36 37 37 38 38 38 39 40 41 42 43 44 45 47 49 51 52 52
39 39 40 40 40 41 41 41 41 40 40 40 39 39 39 39 39 38 38 38 38 39 38 38 39 40 40 41 41 42 43 44 45 46 47 49 52 54
44 44 44 44 44 44 45 44 44 43 43 43 42 42 42 42 41 41 40 40 40 40 40 40 40 41 41 42 42 43 44 44 45 46 47 48 50 53
48 48 48 48 48 48 49 48 47 46 46 46 46 45 45 44 44 43 43 43 42 42 42 41 42 42 42 43 43 43 44 45 45 46 47 48 49 51
53 53 52 52 52 52 52 51 51 50 50 50 49 48 47 47 46 46 46 45 44 43 44 43 43 43 43 43 44 45 45 45 45 45 46 47 48 50
57 57 57 56 56 56 56 56 55 54 54 53 52 51 50 49 48 48 48 48 46 45 45 45 44 45 45 44 44 45 45 45 45 45 45 46 48 49
62 62 62 62 61 61 61 60 59 59 58 57 56 55 54 52 51 50 50 49 48 47 46 46 45 45 46 45 44 45 45 45 45 45 45 46 46 47
67 67 67 67 67 66 65 64 64 63 62 60 59 58 57 55 54 53 52 51 50 48 48 47 47 46 46 45 45 45 45 45 45 45 45 45 45 46
71 71 71 71 71 70 69 68 67 66 65 64 62 60 59 57 56 54 53 52 50 49 48 48 47 47 46 45 45 44 45 45 45 45 45 45 44 44
73 73 72 72 72 71 71 70 69 68 66 65 63 61 59 57 55 54 53 52 51 49 48 47 46 46 45 45 44 43 44 44 44 45 45 44 44 44
73 72 72 72 71 71 70 69 68 67 65 63 62 60 58 56 54 53 52 51 50 49 48 47 46 45 44 43 43 43 43 43 43 44 44 44 44 44
71 70 70 69 67 67 66 65 64 62 61 60 59 57 56 55 54 53 52 51 49 48 47 45 44 44 43 42 41 42 41 41 42 42 42 43 43 44
65 65 64 62 60 59 58 57 57 56 55 54 54 54 54 53 52 51 50 49 48 46 45 44 43 43 42 41 40 40 39 40 40 41 42 42 42 43
57 55 54 52 51 50 49 48 48 48 48 48 48 48 48 48 48 47 47 47 46 45 44 43 42 42 40 40 38 37 37 38 39 40 41 42 42 43
48 45 44 42 42 41 41 40 39 40 40 42 43 43 44 44 44 44 43 42 41 40 41 41 40 40 39 37 36 36 36 36 37 38 39 41 41 41
38 36 34 34 34 34 34 34 34 35 35 36 38 39 39 38 38 38 38 38 38 38 38 38 38 37 37 36 35 34 34 35 36 36 37 38 40 40

GEFSNE_500_meanwind_072.txt.gz
Wind_Speed
20 20 21 21 22 22 22 23 23 23 22 21 21 22 22 22 22 22 22 23 24 24 25 25 26 27 27 28 28 28 29 29 30 31 32 32 34 34
23 23 24 24 25 25 26 26 26 26 26 25 23 23 23 24 24 25 25 25 26 26 26 27 27 28 29 30 30 31 31 31 32 33 34 34 34 35
25 26 27 27 27 28 28 28 28 28 28 28 27 26 25 26 26 25 26 26 26 27 27 28 28 29 30 30 31 32 33 33 34 35 35 36 36 36
28 28 29 29 30 30 30 30 30 30 30 30 30 30 29 28 28 28 28 28 28 29 29 29 29 29 30 31 32 32 33 34 35 36 36 37 38 39
30 30 30 31 31 32 32 32 33 33 33 32 32 33 32 32 31 31 31 31 31 31 31 31 31 32 32 32 33 33 34 35 35 36 37 38 39 40
32 32 32 33 34 34 34 35 36 36 36 35 35 35 35 34 34 33 33 33 33 34 33 33 33 34 34 35 34 34 35 35 36 37 38 39 39 40
34 34 35 36 37 37 38 38 38 39 39 39 39 39 39 38 38 37 37 36 36 37 36 35 35 34 35 36 36 36 36 37 37 37 38 39 39 40
37 38 39 39 40 40 41 41 42 42 43 43 43 42 42 42 42 41 41 40 39 39 39 37 37 37 37 36 36 37 37 37 38 38 38 39 40 40
40 41 42 43 44 44 44 44 45 46 46 47 47 46 46 45 45 44 43 43 41 41 41 39 39 39 39 39 38 37 38 38 38 38 39 39 40 41
44 45 46 46 47 48 48 47 47 48 49 50 50 49 49 49 49 48 47 46 44 43 44 43 42 41 41 40 40 39 39 39 39 39 39 39 40 41
48 49 49 50 51 52 53 52 52 52 52 53 53 53 52 52 52 52 50 49 47 46 46 45 44 44 43 42 41 41 40 40 40 40 40 40 40 41
51 52 54 55 56 56 57 57 57 57 57 58 57 56 55 55 54 54 54 53 52 50 49 49 48 47 45 44 44 43 42 41 41 41 41 41 41 41
56 57 59 60 61 62 62 63 63 63 64 64 63 62 61 60 59 58 57 57 56 54 52 53 51 50 49 47 46 45 45 44 43 42 42 42 42 42
61 63 64 65 66 67 67 68 68 69 69 69 68 67 66 65 64 63 62 61 59 58 56 56 55 53 51 50 48 46 46 46 45 43 43 43 43 43
66 68 69 70 71 71 71 72 73 73 73 73 72 71 70 69 68 67 66 64 63 61 59 57 57 55 54 52 50 49 48 46 46 45 45 44 43 43
71 71 72 73 74 74 74 73 73 73 73 73 72 71 71 70 69 68 67 66 65 63 60 59 58 56 55 54 52 50 48 47 47 47 46 45 44 44
73 73 73 72 72 71 71 71 71 70 70 70 69 69 69 69 68 66 66 66 64 63 61 59 57 56 55 54 53 51 50 48 47 46 46 45 44 44
70 69 69 68 67 66 65 65 64 64 64 64 64 63 63 62 62 62 62 62 61 60 59 58 57 56 55 53 52 50 49 48 47 46 46 45 44 43
64 63 62 61 60 59 58 57 57 56 57 56 56 55 55 55 55 56 57 57 56 56 56 56 55 55 55 52 49 50 48 47 46 45 45 44 44 43
56 54 53 52 51 50 50 50 49 48 48 47 48 48 48 48 48 49 50 52 52 52 52 52 52 52 52 50 48 48 47 45 44 44 44 44 43 43
47 46 45 44 43 42 42 41 41 40 40 40 41 41 42 43 44 44 44 45 46 47 47 47 48 49 49 48 47 45 44 44 43 43 44 43 42 41
39 37 36 35 35 34 33 33 33 32 33 33 33 34 35 35 36 37 38 39 40 42 43 43 43 44 44 45 43 42 42 42 42 42 42 42 41 40
31 30 29 29 28 28 27 27 26 26 26 26 26 27 27 29 30 30 32 33 35 37 37 38 38 39 40 40 40 40 40 40 40 41 41 40 40 39

GEFSNE_500_meanwind_078.txt.gz
Wind_Speed
17 18 18 17 17 17 17 17 17 17 17 17 17 18 18 18 18 18 18 18 18 19 19 20 21 21 22 23 24 24 25 26 26 27 28 29 30 30
21 21 21 21 21 21 21 21 21 20 20 20 20 20 21 21 22 22 22 21 21 21 21 22 22 23 24 24 25 26 26 27 28 29 29 30 31 32
24 25 24 24 24 24 24 24 24 24 24 23 23 23 23 24 24 24 25 25 25 25 24 24 24 25 25 26 27 27 28 29 29 30 31 31 32 33
27 28 28 27 27 27 27 27 27 27 27 27 26 26 26 26 26 27 27 27 28 28 28 28 28 28 28 29 29 29 30 31 31 32 32 33 33 34
29 30 30 30 30 30 30 30 30 30 29 29 29 29 29 30 30 30 30 30 30 31 31 31 32 32 32 32 32 32 32 33 33 34 34 34 35 36
32 31 31 32 32 33 33 33 33 33 33 32 33 33 33 34 34 34 34 35 35 35 34 34 34 35 35 35 35 35 35 36 36 36 36 37 37 37
34 34 34 35 35 35 36 36 36 36 36 37 37 37 37 38 39 40 39 39 38 39 39 39 39 39 39 39 39 39 38 38 38 38 38 38 38 39
37 37 38 38 38 38 38 38 39 39 40 41 41 41 41 42 43 44 43 43 42 42 44 43 43 42 43 43 42 42 42 41 41 40 40 40 40 40
39 40 40 40 41 41 41 42 42 43 44 45 45 45 46 46 47 47 47 47 46 46 48 47 47 46 46 46 46 46 45 44 43 43 42 42 42 41
41 42 42 43 43 44 44 45 46 47 48 49 49 49 50 50 51 52 52 52 51 51 52 51 50 50 50 49 49 48 48 47 46 45 44 44 43 43
42 42 43 44 45 46 47 49 49 50 52 53 54 54 55 55 56 57 57 57 56 55 55 55 54 54 53 52 51 51 50 49 48 47 46 46 45 45
43 44 46 47 49 50 51 52 54 55 56 58 58 59 60 60 61 63 63 63 63 61 60 61 59 60 58 56 55 54 53 52 51 51 49 48 48 47
46 48 50 52 53 55 57 58 60 61 62 63 64 64 65 66 67 68 69 69 69 67 66 66 65 65 64 61 60 59 57 56 55 54 53 52 51 50
51 52 54 56 58 60 62 64 65 67 68 69 69 70 71 71 72 72 72 73 73 72 71 71 71 70 70 68 66 63 62 60 59 58 57 55 54 53
56 58 59 61 63 64 66 68 69 70 71 72 72 73 73 74 74 74 74 74 74 73 73 73 73 73 73 72 70 68 66 64 63 61 60 59 57 56
60 62 64 65 66 67 68 68 69 69 70 71 71 71 72 72 72 72 72 73 73 71 71 72 73 73 73 73 73 71 70 67 65 65 63 62 60 58
63 64 65 65 65 65 65 66 66 66 65 65 64 64 64 64 64 65 66 67 68 67 67 69 70 72 73 72 73 72 70 69 67 65 65 63 61 59
60 60 60 60 60 60 60 59 59 59 59 58 57 56 56 55 55 56 58 59 60 60 60 61 63 66 68 69 68 68 68 67 66 65 65 65 62 59
56 55 54 54 53 52 52 51 51 50 49 48 48 48 47 47 47 47 48 50 52 53 54 55 56 59 60 60 60 62 63 63 63 64 63 63 61 59
51 50 48 47 46 45 44 42 40 40 40 40 40 40 40 41 41 41 42 43 44 45 46 47 50 52 54 54 54 55 57 58 59 59 59 60 59 59
44 43 41 40 39 38 36 35 35 34 34 33 34 34 35 35 35 36 36 37 38 38 39 40 42 45 47 48 48 47 49 53 55 55 55 55 56 57
38 36 35 35 34 32 31 31 30 30 30 31 31 31 31 31 31 31 32 32 33 33 33 34 36 38 40 41 42 42 43 46 48 50 50 50 50 51
33 32 31 30 29 27 27 27 27 28 28 28 27 27 27 27 27 27 28 28 28 28 28 28 29 31 32 34 35 35 36 38 41 43 44 45 46 46

GEFSNE_500_meanwind_084.txt.gz
Wind_Speed
20 20 20 20 20 20 21 21 21 21 21 21 21 21 21 21 21 21 21 21 22 22 22 22 22 23 23 23 23 23 24 24 25 25 25 26 26 26
23 24 24 24 25 25 25 26 26 26 26 26 26 26 26 25 25 25 25 25 25 25 26 26 26 26 26 26 26 26 26 27 27 27 27 28 28 28
27 27 28 28 28 29 30 30 30 30 30 30 30 30 30 30 30 30 30 30 30 29 29 29 29 29 30 30 30 30 30 30 30 30 30 30 30 30
30 31 32 32 33 33 33 34 34 33 33 33 33 33 33 34 34 34 34 33 33 33 33 33 33 33 33 34 34 34 34 34 34 33 33 33 33 33
33 34 36 36 36 36 37 37 37 37 36 36 36 37 37 37 37 37 37 37 37 37 37 37 37 37 37 37 37 37 37 37 37 37 37 37 37 37
35 37 38 39 39 39 39 39 40 41 41 41 40 40 41 41 41 41 41 41 41 41 41 41 41 41 41 42 42 42 42 42 41 41 41 40 40 40
38 39 40 41 41 41 41 42 43 43 44 44 43 43 44 45 45 45 45 45 45 45 45 45 46 45 45 46 46 46 46 46 45 45 44 44 44 43
39 40 42 43 43 43 44 45 46 46 46 46 46 47 47 48 48 49 48 48 47 47 49 49 50 49 49 49 50 50 50 50 49 49 49 48 48 47
42 43 45 46 46 46 47 47 48 49 49 49 48 49 49 50 51 51 52 52 51 52 54 53 53 53 53 53 54 54 54 54 53 53 52 52 52 51
42 44 46 46 46 47 48 49 50 50 52 52 52 52 52 53 55 56 56 56 57 57 59 58 57 57 58 58 58 58 58 58 58 58 57 56 55 55
42 44 46 47 47 48 49 50 50 51 52 53 54 55 56 57 59 60 61 61 61 61 62 64 63 63 63 62 62 63 63 63 63 62 61 60 59 58
43 44 45 46 47 49 50 51 52 53 54 55 56 57 59 61 63 64 65 66 67 66 67 68 68 69 68 67 67 68 68 68 67 67 66 65 64 63
45 46 47 48 50 51 52 54 55 56 57 59 60 62 64 65 67 69 70 71 72 72 72 74 74 74 75 73 73 73 74 73 73 73 72 70 69 68
48 49 51 52 53 55 56 58 59 60 62 64 65 66 68 69 71 72 74 75 76 76 77 78 79 79 79 78 77 77 77 77 77 77 76 75 74 73
50 52 53 55 56 57 58 60 61 62 64 65 66 67 68 69 70 72 74 75 76 77 78 80 81 81 81 80 79 78 78 78 78 78 79 79 78 77
52 53 55 56 56 58 59 60 61 61 62 62 62 63 64 65 67 68 69 70 70 70 72 74 75 77 77 77 77 76 76 76 75 76 77 78 78 78
55 56 57 57 58 59 59 60 60 60 59 59 59 60 60 60 60 61 61 62 62 61 61 62 64 65 66 67 67 66 67 68 69 71 72 73 74 74
58 58 58 59 59 58 58 57 57 56 55 55 55 55 54 54 54 53 54 53 51 51 51 52 53 54 55 56 57 59 60 61 62 64 65 67 68 69
58 58 58 57 56 55 53 52 51 50 50 49 48 48 47 47 46 46 46 46 45 43 43 44 45 46 48 48 48 51 53 54 56 57 58 60 60 61
56 55 54 53 51 50 48 46 45 44 43 42 42 41 41 41 40 40 40 40 39 39 39 39 41 42 43 43 43 44 46 48 48 49 50 51 52 53
52 50 48 47 45 43 41 40 39 38 38 37 37 36 36 35 35 35 35 35 35 35 36 36 37 38 39 40 39 38 38 40 42 43 43 44 45 47
45 43 42 40 38 36 35 35 34 33 33 33 32 32 32 32 32 32 32 31 31 32 32 32 33 33 34 35 35 34 33 34 36 37 38 39 39 39
39 37 35 34 32 31 30 30 29 29 29 29 29 29 29 29 29 29 28 28 28 28 29 29 29 29 29 30 30 29 28 28 29 30 31 31 32 34

GEFSNE_500_meanwind_090.txt.gz
Wind_Speed
20 20 20 20 21 21 21 22 22 23 23 23 24 24 25 25 25 26 26 26 26 26 26 26 26 26 26 27 27 26 26 26 26 26 26 26 26 26
23 23 24 24 24 25 25 26 26 27 27 28 28 29 29 30 30 30 30 30 31 30 30 30 30 30 30 30 30 30 30 30 30 29 29 29 29 29
25 25 26 27 27 28 29 30 30 31 31 32 33 33 34 34 34 34 35 35 35 35 35 35 34 34 34 34 34 34 34 34 34 33 33 33 32 32
27 27 28 29 30 31 32 32 33 34 35 36 37 38 38 38 38 38 39 39 39 39 39 39 39 38 38 38 38 38 38 38 38 37 37 37 36 36
28 29 30 31 33 34 35 35 36 37 37 38 39 41 41 41 42 42 42 42 41 42 43 43 43 43 43 42 42 43 42 42 42 42 41 41 41 40
30 32 33 34 36 37 37 38 39 40 41 41 41 43 43 44 44 44 44 44 43 44 45 45 46 47 47 47 47 47 47 47 47 46 46 45 45 44
33 35 36 38 39 40 41 42 42 42 43 44 44 45 46 47 48 47 47 47 47 47 48 48 49 49 49 49 50 50 51 51 51 50 50 49 49 48
36 37 38 40 41 43 44 44 45 45 46 47 48 48 49 50 50 50 51 51 50 51 52 51 52 52 51 52 52 52 52 53 54 54 53 53 52 52
39 40 41 41 42 44 44 45 46 46 48 49 50 51 51 51 51 52 53 53 53 53 55 54 54 54 55 56 55 55 56 56 57 57 57 57 56 56
41 42 43 43 44 45 46 47 48 49 49 50 51 52 52 52 53 53 54 55 55 55 56 56 56 57 58 59 58 58 59 60 61 61 61 61 60 60
42 43 44 45 45 46 48 48 49 50 51 52 52 53 53 54 54 55 55 56 56 57 59 59 60 61 61 61 62 63 63 64 64 64 65 65 65 64
43 44 45 46 47 49 50 50 51 52 53 54 55 56 56 56 57 57 58 58 58 59 60 61 63 65 65 65 66 66 66 67 67 67 68 68 68 68
45 46 47 48 49 50 51 52 53 54 55 56 56 57 58 59 59 60 60 61 61 61 62 64 64 65 67 67 67 68 70 70 70 70 71 72 72 73
48 49 50 51 53 53 54 55 55 56 57 58 59 59 60 60 61 61 62 62 63 63 63 65 65 66 67 67 67 68 69 71 71 72 72 73 74 75
51 52 53 55 56 56 57 58 58 59 59 60 60 61 61 61 61 62 62 62 62 63 63 64 64 65 66 66 67 67 68 69 71 72 72 72 72 72
54 55 56 57 58 59 59 60 60 60 60 60 60 60 60 60 60 60 60 60 60 60 60 61 61 62 62 62 63 63 63 64 64 65 66 66 65 65
57 58 58 59 59 59 59 59 59 58 57 57 57 57 57 57 57 57 56 56 56 55 55 56 56 56 55 55 55 56 56 56 57 57 57 58 57 58
58 58 58 58 57 57 56 56 55 54 54 53 53 52 52 51 52 52 51 51 50 50 50 49 49 49 49 49 49 49 48 49 49 50 51 51 51 51
57 56 56 55 53 53 52 51 50 49 48 47 47 46 46 45 45 45 44 44 43 42 42 42 42 43 43 42 42 43 43 43 44 45 45 46 46 46
53 52 51 49 48 47 45 44 43 42 42 41 40 39 38 38 37 37 37 36 36 36 36 37 38 38 37 36 35 36 39 40 40 41 41 42 43 43
48 47 45 44 42 41 40 39 38 37 37 36 34 33 33 32 32 31 31 31 32 32 32 32 33 34 34 33 32 32 34 36 37 38 38 38 39 39
43 41 40 39 38 37 36 35 34 33 32 32 31 30 29 29 28 28 28 28 28 28 27 28 29 29 30 31 31 30 30 31 33 33 33 34 35 34
38 37 36 35 35 34 32 31 30 29 28 28 27 27 27 27 26 26 25 25 25 25 25 25 26 27 28 29 29 29 29 29 29 29 29 30 30 29

GEFSNE_500_meanwind_096.txt.gz
Wind_Speed
19 20 20 21 22 22 23 23 23 24 24 24 24 25 25 26 26 26 27 27 28 28 28 28 28 27 27 27 27 27 27 27 27 26 26 26 26 25
21 22 23 24 25 25 25 26 27 27 28 28 28 29 29 30 30 31 31 32 32 33 33 32 32 32 32 32 32 32 31 31 31 31 30 30 30 30
23 24 25 26 27 27 28 28 28 29 30 31 32 33 33 34 34 34 35 35 35 35 36 36 36 36 36 36 36 36 36 36 35 35 35 34 34 34
25 26 27 28 28 29 29 30 31 32 32 33 35 36 36 37 38 38 38 38 38 38 38 38 38 39 39 39 39 39 39 40 39 39 39 39 39 38
25 26 27 28 29 30 31 32 33 34 34 35 36 38 38 39 40 40 41 41 41 41 41 41 41 41 42 42 42 42 42 43 43 43 43 43 43 42
25 26 27 28 29 31 32 33 34 36 37 38 38 39 40 41 41 41 42 43 43 44 44 44 44 44 44 45 46 46 46 45 45 46 46 46 46 47
26 27 28 29 31 33 35 36 37 39 40 41 41 42 43 43 44 45 46 46 46 47 48 48 48 48 48 47 47 48 49 49 49 49 49 48 49 49
28 30 30 31 33 35 36 38 39 40 41 43 43 45 45 46 47 47 48 49 49 50 51 51 51 51 50 50 50 50 51 51 51 51 52 52 53 53
32 33 34 34 36 38 40 41 42 43 44 45 46 47 48 49 50 50 52 53 53 52 53 52 52 52 53 52 52 52 52 53 53 54 54 54 55 55
35 36 38 39 40 42 43 43 45 46 47 47 49 50 52 53 53 54 55 55 55 55 56 56 55 54 54 54 54 54 54 54 54 55 55 56 56 57
37 38 39 40 42 44 45 46 47 49 50 51 53 54 55 56 57 58 58 58 58 58 58 59 58 57 56 56 57 57 58 58 57 57 57 58 58 58
40 41 42 43 45 47 48 50 51 52 53 55 56 57 59 60 61 61 61 61 61 61 61 61 61 61 59 58 58 58 58 58 58 58 58 58 59 60
43 43 44 46 47 49 51 53 54 56 57 58 59 61 62 63 64 64 64 64 64 63 63 64 63 63 62 60 58 58 59 58 59 59 60 60 61 61
45 46 48 50 51 53 54 56 58 59 61 62 63 64 65 65 65 65 66 65 65 65 64 64 63 63 62 61 60 59 59 59 59 59 60 60 61 62
48 50 52 54 55 57 59 60 62 63 63 64 64 64 64 64 63 63 64 63 63 62 62 61 60 60 60 60 59 58 57 57 57 57 57 57 58 59
51 54 56 57 59 60 61 62 62 62 62 61 61 61 60 60 59 59 58 57 56 55 56 56 56 56 55 55 54 53 53 52 52 53 53 53 52 53
55 56 58 59 60 60 60 60 59 59 58 57 56 55 55 54 54 53 52 52 51 50 49 49 49 49 48 48 47 47 47 47 47 47 47 47 47 47
56 57 58 58 58 58 58 57 56 55 54 53 51 51 50 49 48 48 47 46 45 44 44 43 43 42 42 41 42 41 40 40 41 41 42 42 41 42
56 56 56 56 55 55 54 53 52 51 50 49 48 47 46 45 43 42 42 40 39 38 38 38 38 38 36 35 34 36 36 35 35 36 37 38 37 37
54 54 53 53 51 50 49 48 47 46 45 44 43 42 41 39 38 37 36 35 34 33 33 34 34 33 32 31 29 29 32 32 32 32 32 33 33 33
51 50 49 48 47 45 44 44 43 42 41 41 40 38 37 35 34 33 32 31 31 31 30 30 31 30 30 28 27 26 27 29 29 29 29 29 29 29
46 45 44 43 43 42 41 40 39 39 38 37 36 35 34 33 32 31 30 29 28 28 27 27 28 28 27 26 25 24 24 25 26 27 27 27 27 27
42 41 41 40 39 38 38 37 36 36 35 35 34 33 32 31 30 29 27 27 26 26 26 25 25 25 25 25 24 23 23 23 23 23 25 26 27 26

GEFSNE_500_meanwind_102.txt.gz
Wind_Speed
17 17 17 17 17 18 18 19 19 19 19 19 19 20 20 21 22 23 23 24 24 25 26 26 26 27 27 27 28 28 28 28 29 29 29 29 29 29
18 19 19 20 20 21 21 21 21 21 22 22 23 23 23 24 25 26 27 27 28 29 30 30 30 30 31 31 32 32 32 33 33 33 33 33 34 34
20 21 22 23 23 23 23 24 24 24 25 26 26 26 26 27 28 28 29 30 31 32 32 33 33 34 35 35 35 36 36 37 37 37 37 37 38 38
22 23 23 24 24 25 25 26 26 26 27 28 29 29 29 30 30 31 32 33 33 34 34 35 36 37 38 38 39 39 39 40 40 41 41 41 42 42
23 24 24 25 25 26 26 27 27 28 28 29 31 32 33 33 33 34 35 36 36 37 38 38 39 40 41 41 42 43 43 43 44 44 45 44 45 45
25 25 25 25 26 26 27 28 28 29 30 31 33 34 35 36 37 38 38 39 40 41 42 42 42 43 44 45 45 46 47 48 48 48 48 48 48 48
25 26 26 27 27 28 29 30 30 31 33 34 36 37 38 39 40 41 41 42 43 44 45 46 46 47 48 49 50 50 51 51 52 52 53 53 53 53
26 27 27 28 29 31 31 32 34 35 37 38 40 41 41 42 43 44 44 45 46 47 49 49 51 52 53 54 54 55 56 56 56 56 56 56 56 56
27 28 29 31 32 32 34 36 37 39 40 41 42 43 44 45 46 48 49 50 50 51 53 54 55 56 57 58 59 59 60 60 60 60 59 59 58 58
28 30 32 34 35 36 37 39 40 41 42 43 45 46 47 48 50 51 52 54 55 57 58 59 59 61 61 62 63 63 63 63 62 62 62 62 61 61
31 33 35 36 37 38 40 41 43 44 45 46 48 49 51 53 54 56 57 58 59 61 63 64 64 64 64 64 64 65 64 64 64 64 64 65 65 64
35 36 37 38 39 40 42 44 45 47 49 50 52 53 55 57 59 60 62 63 64 64 65 66 67 67 65 64 65 65 65 65 65 65 65 65 66 66
37 38 39 40 41 43 45 46 48 50 52 54 56 58 60 61 62 64 65 65 66 66 66 66 65 65 65 64 63 63 63 64 64 64 64 64 65 65
39 40 41 42 44 46 48 50 52 54 56 58 59 61 62 63 63 64 65 65 66 66 65 64 63 62 61 60 59 59 60 61 61 61 61 62 62 63
40 41 43 45 47 50 52 54 56 58 59 60 61 62 62 63 63 63 64 64 64 63 62 61 60 59 57 56 54 54 54 54 55 56 56 56 57 58
42 44 46 49 51 53 55 56 58 58 59 60 60 61 61 61 61 60 60 59 57 57 57 56 54 53 51 50 48 47 47 47 47 48 49 50 51 52
45 47 50 52 53 55 56 57 57 58 59 59 59 58 58 57 57 56 55 54 52 51 50 49 48 47 45 44 43 43 42 42 42 42 42 42 44 45
47 49 51 53 54 55 56 56 56 57 57 56 55 54 53 52 51 50 49 48 47 46 44 43 41 40 40 39 39 38 37 36 36 37 37 37 37 40
48 50 51 52 52 53 53 53 53 53 52 51 50 48 47 46 45 44 43 42 41 40 39 38 36 35 34 33 34 34 32 32 32 32 33 33 32 33
48 48 49 49 49 49 49 49 48 48 47 46 44 43 42 42 40 39 38 37 36 35 34 33 33 31 30 29 29 31 31 29 29 28 28 28 28 28
45 46 46 46 46 46 45 45 44 43 42 41 39 39 38 37 36 35 34 33 32 31 30 29 29 28 28 27 26 26 27 27 27 26 25 25 25 25
43 43 43 43 42 42 41 41 40 39 38 37 35 35 34 34 33 31 30 29 28 28 27 26 26 26 26 25 24 24 24 24 24 24 23 22 21 22
40 39 39 38 38 37 37 37 36 34 33 33 32 31 31 30 29 29 28 27 26 25 25 24 24 24 24 23 22 21 21 21 21 22 23 22 21 20

GEFSNE_500_meanwind_108.txt.gz
Wind_Speed
18 19 19 19 19 19 19 20 20 21 21 22 22 23 23 23 24 24 25 26 27 27 27 28 28 29 30 31 31 32 32 32 32 32 33 33 33 33
20 21 21 21 21 21 21 22 23 23 24 24 25 26 26 27 28 28 29 30 30 31 32 33 33 34 34 35 36 36 36 36 37 37 37 38 38 38
23 23 23 22 22 23 24 24 25 25 26 28 29 29 29 30 31 32 32 33 34 34 35 36 37 37 38 39 39 40 40 40 40 41 41 42 42 42
24 24 25 25 25 25 26 26 27 28 29 30 31 31 31 32 33 34 35 36 37 38 38 39 40 41 42 43 43 43 44 44 45 45 46 46 46 46
24 25 25 25 26 26 27 28 29 30 31 32 32 32 33 34 35 36 37 38 39 40 41 43 44 45 46 47 47 48 48 49 50 50 51 51 51 51
23 24 25 26 27 28 29 30 30 31 32 33 33 34 35 36 37 38 39 41 43 44 45 47 47 48 49 50 51 51 52 53 54 54 55 56 56 56
25 25 26 28 29 30 30 31 32 33 34 35 36 37 38 39 40 41 42 44 45 47 48 50 51 51 52 53 54 55 56 56 57 58 59 59 60 60
26 27 28 29 30 31 32 33 34 36 37 38 40 41 41 42 43 45 47 48 49 50 51 53 54 56 57 58 59 60 61 62 62 63 63 64 64 64
27 28 29 30 31 32 33 35 36 38 40 42 43 44 45 46 48 49 50 52 53 54 55 56 58 59 61 62 64 65 66 66 67 67 67 67 67 67
28 29 30 31 32 34 35 37 39 41 42 44 46 48 49 51 52 53 54 56 58 59 60 60 61 62 64 65 67 68 69 70 70 71 71 71 70 70
29 31 32 34 36 38 39 41 43 45 46 48 49 50 52 53 55 57 58 60 61 62 63 64 65 65 66 67 68 70 71 72 72 73 72 72 71 71
33 35 36 38 39 40 42 44 46 48 50 50 52 53 55 57 59 60 62 63 64 65 65 67 67 68 68 68 69 71 72 72 72 72 72 71 71 70
35 37 38 39 41 43 45 47 48 50 52 53 55 57 59 61 62 64 65 66 66 67 68 69 69 69 70 70 69 70 70 69 69 69 68 68 67 66
37 38 40 41 43 45 46 48 49 51 53 55 57 59 61 63 64 65 66 67 68 69 69 69 69 68 68 67 66 65 65 64 63 63 62 62 62 62
38 39 41 42 44 45 47 49 51 53 55 57 59 61 62 64 64 65 66 67 67 67 67 66 65 64 64 63 62 60 58 57 56 55 54 54 54 54
41 41 42 43 45 47 49 51 53 55 57 58 59 60 61 62 62 63 63 62 62 61 61 60 60 59 58 57 56 54 52 50 48 47 46 46 46 46
41 42 43 45 47 49 51 52 54 55 55 56 57 57 58 58 58 58 57 56 55 54 53 52 52 52 51 49 47 45 43 42 41 40 39 38 39 40
42 43 44 46 47 48 50 51 52 52 53 53 53 53 53 53 52 52 51 49 48 47 46 46 45 43 42 41 40 38 36 35 34 33 33 32 33 34
41 42 44 45 46 47 47 48 48 48 47 47 48 48 48 48 47 46 45 44 43 42 41 40 39 37 35 34 34 34 32 31 29 29 28 28 28 28
41 42 42 43 43 43 43 43 43 43 43 44 44 44 43 42 41 40 40 39 37 36 36 35 34 32 31 29 29 30 30 28 26 26 25 25 24 24
39 40 40 40 40 40 40 40 41 41 40 40 40 40 39 38 38 36 35 34 33 32 32 31 30 29 28 28 27 26 27 26 25 24 22 21 21 21
37 37 37 37 37 38 38 38 38 37 37 37 37 37 36 35 34 33 31 30 30 29 29 28 28 28 28 27 26 24 24 24 24 23 21 20 19 19
35 36 36 36 35 36 36 35 35 34 35 35 35 34 33 32 31 30 29 29 29 28 27 28 28 28 27 26 24 23 22 22 22 22 22 21 20 19

GEFSNE_500_meanwind_114.txt.gz
Wind_Speed
19 19 20 20 20 20 21 21 22 22 23 23 24 24 25 25 26 26 27 27 28 28 29 30 31 31 32 32 33 33 34 34 35 35 36 36 36 36
20 21 22 22 22 23 24 25 25 25 26 26 26 27 27 27 28 29 30 30 30 31 32 33 34 35 35 36 36 37 38 38 39 39 40 40 40 40
22 23 23 24 24 25 26 27 27 28 28 29 29 29 29 30 31 32 32 33 34 35 36 36 37 38 39 39 40 41 41 42 42 43 43 44 44 44
22 23 24 25 26 27 27 28 29 30 30 31 31 31 32 33 34 35 36 37 37 38 39 40 41 41 42 43 44 45 45 46 46 47 47 48 48 49
23 23 24 25 26 26 27 28 29 31 31 32 33 33 34 35 36 38 39 40 41 41 42 43 44 45 46 47 48 49 49 50 50 51 51 52 52 52
24 25 25 26 26 27 27 28 29 30 31 33 34 35 37 38 39 40 42 43 43 44 45 46 47 49 50 51 51 52 53 53 54 54 55 55 56 56
26 26 26 27 28 29 30 31 31 32 33 34 35 37 39 40 41 42 43 44 45 46 48 49 51 52 53 54 54 55 56 57 58 58 59 59 60 60
27 27 27 27 28 29 30 30 31 33 34 35 37 39 40 40 41 43 45 46 48 49 51 53 54 55 56 58 58 59 60 61 62 62 63 63 63 64
27 27 27 27 27 29 30 31 33 34 36 37 38 40 42 43 44 46 48 49 51 53 54 56 57 58 59 61 61 62 63 64 65 65 66 66 67 67
27 28 28 29 30 31 32 33 35 36 37 39 41 43 45 45 47 49 51 53 55 56 56 57 59 60 61 63 64 65 66 67 68 68 68 69 69 69
28 29 30 32 32 33 34 35 37 38 40 42 43 45 46 49 51 52 54 56 57 58 59 61 62 63 64 65 67 67 68 68 69 70 70 71 71 71
29 30 32 32 33 35 36 38 39 40 42 44 46 48 49 51 52 54 55 57 58 60 61 62 63 64 65 65 67 67 68 68 68 68 68 69 69 69
30 32 33 34 35 36 38 40 41 43 45 46 48 50 51 52 53 55 56 57 59 60 61 62 63 64 65 64 64 64 64 64 64 64 64 63 63 62
32 32 34 35 37 38 39 41 43 44 46 47 49 50 51 52 53 54 55 56 57 58 59 59 60 60 60 60 59 59 58 58 57 57 56 56 55 55
35 36 37 38 38 39 41 42 44 45 46 47 48 49 50 51 51 52 52 53 54 54 55 55 55 55 54 53 52 51 51 50 50 49 48 47 47 46
36 38 38 38 39 39 41 42 44 44 44 45 46 47 47 48 48 49 50 50 51 51 51 51 49 49 48 47 46 45 44 42 41 41 40 40 40 39
35 36 37 38 38 39 40 41 42 42 42 43 43 44 45 45 45 46 47 47 46 46 46 45 44 43 43 41 40 39 38 36 35 35 34 34 34 33
33 34 35 36 37 39 39 40 40 40 40 40 41 41 42 42 43 44 44 43 42 41 41 40 40 39 38 37 36 35 34 32 31 31 30 30 30 30
32 33 34 35 36 37 37 38 37 37 38 38 39 39 40 40 40 40 40 39 38 37 37 36 36 35 34 33 32 32 31 29 29 28 28 27 27 27
32 32 33 33 34 35 35 35 35 36 36 37 37 37 37 37 38 37 36 35 35 34 34 34 33 32 31 30 30 29 29 27 27 26 25 25 24 24
30 31 32 32 32 33 33 34 34 35 35 35 35 34 34 35 35 34 33 33 32 32 32 32 31 30 29 28 28 27 27 26 25 24 24 23 22 22
29 30 30 30 31 32 32 32 33 33 33 32 32 32 32 32 31 31 31 31 31 30 30 30 30 29 28 27 27 26 26 26 25 24 23 22 22 20
28 29 29 30 30 30 30 31 31 31 30 30 29 29 29 29 29 29 29 29 29 29 29 29 28 28 27 27 26 26 26 25 25 24 23 22 21 20

GEFSNE_500_meanwind_120.txt.gz
Wind_Speed
18 18 18 19 19 19 19 20 21 21 22 22 23 23 23 23 24 24 25 26 27 27 27 28 28 29 29 30 31 31 33 33 34 35 35 35 36 36
20 20 20 20 21 22 22 23 23 23 24 24 25 26 25 26 27 27 28 29 29 30 30 30 31 32 32 33 34 35 36 36 37 38 38 39 39 40
21 22 22 22 21 21 22 24 25 25 26 26 27 27 27 28 29 29 29 30 31 31 32 32 33 34 35 36 38 38 39 40 41 42 42 43 44 44
22 23 23 23 23 24 24 25 26 27 27 27 27 28 28 29 31 31 31 32 33 33 34 35 36 37 39 40 41 42 43 44 45 45 46 47 47 48
22 23 24 24 25 26 26 27 27 28 28 28 28 29 30 31 32 34 34 35 36 36 36 38 39 40 42 44 45 46 47 48 48 49 49 50 51 52
24 25 25 26 27 27 28 28 28 28 29 30 30 31 32 33 34 35 35 36 37 37 39 41 42 43 45 46 47 48 50 51 52 52 53 54 54 55
25 26 27 28 29 30 30 30 30 30 31 31 32 33 33 34 34 35 36 37 39 40 41 43 44 45 47 48 49 50 52 53 54 55 57 57 58 59
26 27 28 29 30 29 29 30 30 31 31 31 32 33 34 36 37 37 38 40 42 43 44 46 47 48 50 51 52 54 55 56 56 57 58 59 60 60
27 28 28 28 28 29 29 30 30 31 31 32 34 35 37 37 39 40 41 43 44 45 46 48 50 51 53 54 55 56 57 58 59 60 61 61 62 63
28 28 28 27 27 29 30 30 31 32 33 34 35 36 38 39 40 42 44 45 46 47 49 50 51 52 54 55 57 58 59 59 60 61 61 62 62 62
27 28 28 28 29 29 31 31 32 33 34 35 36 37 39 40 42 43 45 46 47 48 49 50 51 52 53 55 55 56 57 58 59 59 60 60 60 60
28 28 29 30 30 30 31 32 34 35 35 36 38 39 40 41 43 44 45 46 47 47 49 49 50 51 52 53 54 55 56 56 56 56 56 56 56 55
28 28 29 30 31 32 33 34 35 36 37 38 39 40 41 42 43 43 44 45 45 46 47 48 49 51 51 51 51 52 52 52 51 51 51 51 51 50
28 29 30 31 32 33 34 35 36 37 37 38 39 40 41 41 42 42 42 43 44 44 46 47 48 49 49 49 48 47 47 47 47 46 45 45 45 44
28 29 30 31 32 34 34 35 36 37 37 38 39 39 40 40 40 40 41 42 43 44 45 46 47 47 46 46 45 44 44 43 42 42 42 41 40 39
30 31 31 32 33 34 35 35 35 36 37 38 39 39 39 38 38 39 40 41 42 43 44 44 43 42 42 42 42 41 41 40 39 39 39 38 36 35
30 30 32 32 33 33 33 33 34 35 36 37 37 36 37 38 38 39 39 40 40 41 40 40 40 40 40 40 39 38 38 37 36 36 35 34 33 33
30 30 30 31 31 31 31 32 34 35 35 35 35 35 35 36 37 37 37 38 37 37 38 38 38 38 38 37 37 36 34 33 33 32 32 31 30 30
29 29 30 30 30 30 31 32 33 33 33 32 32 33 34 34 35 35 35 35 35 35 36 35 35 35 34 33 33 33 32 31 30 29 29 29 28 28
29 30 30 30 30 31 31 31 31 31 31 31 31 32 32 33 33 33 33 33 33 33 34 33 33 32 32 31 31 30 30 30 29 28 28 27 28 28
30 30 29 29 29 29 29 29 29 29 30 30 30 31 31 31 31 31 32 32 32 32 31 31 30 31 31 30 30 29 29 29 29 28 28 27 27 27
28 28 28 27 27 28 28 29 29 29 29 29 30 30 30 30 30 30 30 30 30 30 29 29 29 29 29 29 29 29 28 28 28 28 29 28 28 27
27 27 27 27 28 28 28 28 28 28 28 29 29 29 29 29 30 29 29 29 28 28 28 28 28 28 28 29 29 29 29 28 28 28 29 29 29 29

GEFSNE_500_meanwind_126.txt.gz
Wind_Speed
16 16 16 16 16 16 16 17 17 18 18 18 18 19 20 21 21 22 23 23 24 24 25 26 26 27 28 29 30 31 32 33 33 34 35 35 36 37
18 18 17 17 17 18 18 18 19 20 20 20 20 21 22 23 23 24 24 25 26 27 27 28 29 30 30 32 32 33 34 35 36 37 38 39 40 41
19 19 19 19 19 20 20 20 20 21 21 21 22 23 23 24 25 26 27 27 28 29 29 30 31 32 33 34 35 36 37 39 40 40 41 42 43 44
19 19 20 20 20 21 22 22 22 23 23 23 24 25 25 26 27 28 29 30 30 31 32 33 33 34 35 37 38 39 40 41 42 43 44 46 46 47
21 21 21 21 22 23 23 23 23 24 25 25 26 27 27 28 29 29 30 31 33 33 34 35 35 36 38 38 39 41 42 43 44 46 47 48 49 51
22 22 23 23 23 25 25 24 25 26 27 27 28 29 30 30 30 31 32 33 33 34 36 37 37 39 40 41 42 43 44 45 47 48 50 51 52 54
23 23 24 24 24 25 25 26 26 27 28 29 29 30 30 31 31 32 33 34 35 36 38 38 39 41 42 44 45 46 47 48 50 51 53 54 55 57
21 22 23 24 24 24 25 26 27 27 28 28 29 30 31 32 32 33 33 35 36 38 40 41 42 43 45 47 48 49 50 51 52 53 54 55 56 57
21 22 23 24 25 26 26 26 26 27 27 28 29 30 31 32 33 34 35 37 39 40 41 42 44 45 47 48 49 50 52 52 53 53 54 55 55 56
23 23 23 24 25 25 26 27 27 27 28 29 29 30 31 33 34 36 37 38 39 41 43 44 45 47 48 49 50 51 52 52 53 54 54 54 54 55
24 24 23 24 25 25 26 26 27 27 28 29 30 31 32 34 35 36 38 40 42 43 44 45 45 47 48 49 50 50 50 51 51 52 52 52 51 51
24 24 24 24 25 25 25 27 27 28 28 30 32 33 34 36 37 37 39 41 42 44 45 45 46 47 47 48 48 48 48 49 49 50 49 49 49 48
24 24 24 25 25 25 26 27 28 28 29 31 33 35 36 36 37 38 39 40 42 43 44 44 44 44 45 45 45 46 47 47 47 47 47 47 46 46
23 24 24 25 26 27 28 28 29 30 31 32 34 36 36 37 37 38 39 40 41 42 42 42 42 43 43 43 44 44 45 45 45 44 44 44 44 44
24 25 26 27 28 28 29 29 30 30 32 33 35 36 36 36 36 37 38 39 40 39 40 41 41 41 41 41 42 42 42 43 43 42 41 41 40 40
25 26 27 28 28 29 30 30 30 31 32 33 34 34 34 35 36 37 37 37 38 37 38 38 38 39 39 39 40 40 40 40 39 39 38 38 37 37
26 26 27 28 28 29 29 30 31 32 32 33 33 33 34 35 35 35 36 36 36 36 36 36 37 37 38 38 38 38 38 37 37 36 36 35 35 35
26 26 27 27 28 28 28 29 30 31 32 32 32 32 33 33 33 33 33 33 34 34 35 35 35 35 36 36 37 36 36 35 34 34 34 34 33 33
26 26 27 27 28 28 29 30 30 31 31 32 32 32 32 32 32 32 32 32 33 33 33 33 33 34 34 34 34 34 34 33 33 33 32 32 32 31
26 26 27 28 28 29 30 30 30 30 30 32 32 32 32 32 32 32 32 32 31 32 32 32 32 32 32 32 32 32 32 32 31 31 31 31 31 31
26 27 28 29 30 30 30 29 29 30 30 31 32 31 31 32 32 31 31 31 31 31 31 31 30 30 31 31 30 30 30 30 30 31 31 30 30 30
27 28 28 29 29 28 28 29 29 30 30 31 31 31 31 32 31 30 30 30 29 29 30 29 29 29 29 29 29 29 29 29 30 31 32 32 32 31
28 28 28 28 28 28 29 30 31 31 31 31 31 32 31 30 29 29 29 28 28 28 28 28 28 28 28 28 28 28 29 29 30 30 31 31 32 32

GEFSNE_500_meanwind_132.txt.gz
Wind_Speed
17 18 19 19 19 19 19 19 19 20 20 20 20 21 21 21 22 23 23 24 25 26 27 27 27 28 30 31 32 33 34 34 35 35 36 37 37 38
19 19 20 20 21 21 21 21 21 21 22 23 23 23 23 24 24 24 25 26 27 28 29 30 31 31 32 34 35 36 36 37 38 38 38 39 40 40
19 20 21 21 21 22 23 22 22 23 23 24 25 26 26 26 26 27 28 29 29 30 31 33 33 34 35 36 37 37 37 38 39 40 41 42 43 44
20 21 22 22 22 23 24 24 24 24 25 26 27 27 27 28 29 29 30 31 32 33 34 35 35 36 37 37 37 38 39 40 41 42 43 44 45 45
21 22 23 24 24 24 25 26 26 26 27 27 27 28 29 31 31 32 33 33 34 34 35 36 37 38 38 38 39 40 41 41 42 42 43 44 46 47
22 23 24 26 26 26 27 27 28 28 28 28 29 30 31 31 32 33 34 34 35 36 37 37 38 38 38 39 40 40 41 42 44 45 46 47 48 49
24 25 25 26 26 27 28 28 29 29 29 30 30 31 32 33 33 34 35 36 37 37 37 37 38 39 39 40 41 42 43 45 46 47 48 49 49 50
26 26 26 26 27 27 27 28 28 29 29 30 31 32 32 33 33 34 35 36 36 36 37 38 39 40 41 42 43 44 45 46 47 48 48 49 50 51
27 28 27 28 28 27 27 27 28 29 30 30 31 32 32 32 33 33 34 35 36 37 39 39 40 41 43 44 44 45 46 46 47 48 48 49 49 50
26 27 28 29 30 29 29 29 28 28 29 30 31 32 32 33 33 33 34 35 37 38 39 41 42 43 44 45 45 45 45 46 46 47 48 49 48 48
27 28 29 29 29 29 29 28 28 29 29 30 30 31 31 32 33 35 35 37 38 39 40 41 42 43 43 44 44 45 45 45 46 46 47 46 46 46
27 27 27 28 29 29 28 28 29 29 30 30 32 32 33 34 35 36 37 38 39 40 40 41 42 42 43 44 44 43 43 43 44 45 45 45 44 45
26 27 28 28 29 28 28 29 29 29 31 32 33 34 35 36 36 36 37 38 39 40 40 41 41 41 42 42 42 41 41 42 42 43 43 43 43 44
27 28 28 28 29 29 29 29 30 31 32 32 33 35 35 36 36 36 37 38 38 39 39 40 40 40 40 40 40 40 40 40 41 41 41 42 42 42
29 29 28 29 29 30 30 31 32 32 33 33 34 35 35 35 35 36 36 37 37 38 38 39 39 39 39 39 39 39 39 39 40 40 40 40 40 40
30 29 30 30 30 30 30 31 32 33 33 33 34 34 34 34 35 35 36 36 37 37 38 38 37 37 37 38 38 38 38 38 38 38 38 39 39 38
30 30 30 30 30 30 31 32 32 32 32 33 32 33 34 34 35 36 36 36 37 37 37 37 37 36 36 37 37 37 37 37 37 37 37 37 37 37
30 30 30 30 31 31 31 31 31 31 32 32 33 33 34 34 35 35 35 36 37 37 36 36 36 36 36 35 36 35 35 35 35 35 35 35 35 35
30 30 30 30 30 30 30 30 31 32 33 33 34 35 35 35 35 35 35 35 36 36 35 35 35 35 35 34 34 34 34 34 34 34 33 33 33 33
30 31 31 31 30 31 31 32 33 33 34 35 35 35 35 34 34 34 34 34 35 35 34 34 34 34 33 33 33 33 33 33 33 32 32 32 32 32
31 30 30 30 31 32 33 33 34 34 35 35 35 35 34 33 33 33 33 34 34 34 34 33 33 32 32 31 31 32 32 32 32 32 31 31 31 31
29 29 30 30 31 32 33 33 34 34 35 34 34 34 33 33 33 33 34 34 34 33 33 32 31 31 30 31 31 31 31 31 31 32 32 32 32 32
29 30 30 31 31 31 32 33 34 34 34 34 34 33 33 33 33 33 34 34 33 32 31 31 30 30 29 30 31 31 30 30 30 30 31 32 33 33

GEFSNE_500_meanwind_138.txt.gz
Wind_Speed
18 18 18 19 19 20 20 21 21 22 22 22 22 23 23 23 23 24 25 25 26 26 27 27 28 29 29 30 31 32 32 33 34 34 35 36 36 36
19 20 20 21 21 21 22 22 22 23 24 24 24 25 25 26 26 27 27 27 27 28 29 30 30 31 31 32 32 34 35 36 36 37 37 37 37 37
19 20 21 22 22 22 23 23 24 24 25 26 26 27 27 27 27 28 29 30 30 30 31 31 32 33 34 34 35 36 37 37 37 37 37 37 38 38
20 20 22 22 23 23 23 24 25 26 26 26 27 28 28 29 30 30 31 30 31 32 33 33 34 34 34 35 36 37 36 36 37 38 38 38 39 39
21 21 22 22 23 24 25 26 27 27 27 28 29 29 30 31 32 33 33 33 33 34 34 34 35 34 35 36 36 37 37 37 38 38 39 39 40 41
21 22 23 24 24 25 26 27 28 28 29 30 30 31 31 32 33 33 34 33 34 34 34 34 34 35 36 37 37 38 38 39 39 40 40 41 41 42
23 24 25 26 27 28 28 29 29 30 31 30 31 32 32 31 32 33 33 33 33 34 34 35 36 36 37 37 38 38 39 40 40 41 41 41 42 42
24 25 26 28 29 30 30 30 31 31 31 31 31 31 31 31 31 32 33 33 33 34 35 35 36 37 37 38 38 38 39 39 39 40 41 41 42 43
25 27 27 28 30 30 30 30 30 30 31 31 31 30 30 31 32 32 33 33 34 35 35 35 36 36 37 37 38 39 39 39 40 40 41 41 42 43
26 27 28 28 28 29 29 29 29 30 30 30 30 30 31 31 32 32 33 34 34 35 35 36 36 36 36 37 38 38 39 39 40 40 40 40 41 41
26 27 27 28 28 28 28 28 29 30 30 30 30 30 31 31 32 32 33 34 34 34 34 35 36 37 37 38 38 38 38 38 39 39 39 40 40 40
27 28 28 29 29 29 29 29 29 29 29 29 30 31 31 32 32 32 33 33 34 34 35 35 37 37 38 38 38 38 38 38 38 38 39 39 39 39
29 29 30 29 29 29 29 30 30 30 30 31 31 31 31 32 32 33 33 34 35 35 35 36 37 37 37 37 37 37 37 37 37 38 38 38 38 38
29 30 30 31 31 31 31 31 32 32 32 31 31 32 32 32 32 32 33 34 35 35 35 36 36 37 37 36 36 36 36 36 37 38 38 37 37 36
30 30 31 31 31 31 31 32 32 32 32 32 32 33 33 32 33 33 33 34 34 34 34 35 35 36 35 35 36 36 36 36 37 36 36 36 36 36
32 32 32 31 31 31 32 32 32 32 32 32 32 32 33 33 34 34 33 33 34 34 34 34 35 35 35 35 35 35 35 35 35 36 36 35 35 35
33 33 33 32 32 32 32 33 32 32 32 32 32 32 33 33 33 33 33 33 33 34 34 34 34 33 33 33 33 34 34 35 35 35 34 34 33 33
34 34 33 33 33 33 33 33 33 33 33 33 33 32 32 33 33 34 34 34 34 34 33 33 33 33 32 32 33 33 34 33 33 33 33 33 32 32
35 35 35 34 33 33 33 33 33 33 34 33 32 32 33 34 34 34 33 33 32 32 32 32 32 32 32 33 33 33 33 33 33 33 32 32 31 31
35 36 35 34 33 34 34 34 34 34 33 34 34 33 33 34 34 33 33 32 32 32 32 32 31 32 32 32 33 33 33 33 33 32 31 30 30 30
35 35 34 33 32 33 33 33 33 33 33 33 33 33 33 33 33 32 31 31 32 32 32 32 32 32 32 32 32 32 32 32 32 31 30 30 30 30
34 33 33 32 32 32 32 32 32 32 32 32 32 33 33 32 32 32 31 32 32 31 31 31 31 31 31 31 32 32 31 31 30 29 29 29 29 29
32 33 33 33 33 33 33 32 32 32 32 32 33 33 33 32 32 32 32 32 31 31 30 30 30 30 31 31 31 30 30 30 29 29 28 28 29 29

GEFSNE_500_meanwind_144.txt.gz
Wind_Speed
15 15 16 16 16 16 17 18 18 19 19 20 20 20 21 22 22 23 24 25 25 25 26 26 27 27 28 28 29 30 30 30 31 31 32 32 32 32
16 16 16 16 17 18 18 19 19 19 20 21 22 21 22 23 24 25 26 26 26 27 27 28 28 29 30 30 31 31 31 32 32 33 33 33 34 34
17 17 17 18 18 19 19 20 20 20 21 22 23 23 24 25 26 26 27 27 27 28 28 29 29 30 31 31 32 32 32 33 34 33 33 34 34 35
18 18 19 19 19 20 20 20 21 21 22 23 24 24 25 26 26 27 28 28 29 29 29 30 31 32 33 32 33 33 33 33 33 34 34 35 35 35
19 19 20 20 20 21 21 22 22 23 23 24 25 26 27 27 27 29 29 29 30 30 30 31 31 32 32 32 32 33 33 33 34 35 35 35 36 36
20 21 21 21 21 22 23 23 24 24 25 26 27 27 28 28 29 29 29 29 29 30 30 30 31 32 32 32 33 33 33 34 35 35 36 35 36 36
21 21 21 22 23 24 24 24 24 25 26 27 28 29 29 29 29 29 29 29 29 30 30 30 31 32 33 33 34 34 35 35 36 36 37 37 37 37
22 22 23 23 24 25 25 25 26 27 27 28 28 29 30 29 29 29 29 30 30 31 32 32 33 33 34 35 35 35 35 36 37 37 37 38 38 38
22 23 24 25 25 26 26 27 27 27 28 29 29 29 29 29 29 30 31 31 32 33 34 34 34 34 34 34 35 35 35 36 37 37 37 37 38 38
24 24 25 26 27 27 27 28 28 28 28 30 30 30 29 30 30 31 31 32 32 33 33 34 34 35 35 35 36 36 36 37 37 37 37 37 38 38
25 26 27 27 28 28 28 29 29 30 31 30 30 30 30 30 31 32 32 33 33 33 33 34 35 35 35 35 36 36 36 36 36 37 37 37 37 37
26 27 27 28 28 29 30 30 31 31 31 30 30 30 30 31 31 32 33 33 34 34 34 34 35 36 36 36 36 36 36 36 37 36 37 37 37 37
28 28 29 29 29 30 31 31 32 32 32 32 33 32 32 32 33 33 33 33 33 34 34 35 36 37 36 36 36 36 36 36 36 36 36 37 37 37
29 29 30 31 31 32 33 33 33 33 33 33 33 33 33 33 34 34 34 34 34 34 34 35 36 36 36 36 35 35 35 36 36 36 36 36 35 36
31 31 32 32 32 32 33 33 33 34 34 34 34 33 34 34 34 34 34 34 35 35 35 35 35 35 35 35 35 35 35 34 34 34 34 34 35 35
33 33 33 33 33 32 33 33 34 34 34 34 34 34 34 34 34 34 34 35 34 34 34 34 34 34 34 34 34 34 34 34 33 33 34 35 35 35
34 34 34 34 34 34 35 35 35 35 35 35 34 34 34 34 34 35 35 34 34 34 34 34 34 34 33 34 33 33 34 34 34 34 34 34 34 34
36 36 36 36 36 36 36 37 36 36 35 35 35 34 35 35 34 34 34 34 34 34 34 34 35 35 34 34 34 34 33 33 33 33 33 33 33 33
38 38 38 38 38 38 37 37 37 36 35 35 35 34 34 33 34 34 34 34 34 33 33 34 35 34 33 34 34 33 33 32 32 32 33 33 32 32
39 39 39 39 38 38 37 37 36 35 35 34 33 33 33 34 34 34 34 34 33 34 34 34 34 33 33 33 32 32 32 32 32 32 33 32 31 31
40 39 39 38 38 37 37 36 35 35 34 33 33 33 33 34 34 34 35 34 33 34 34 33 33 33 32 32 32 31 31 32 32 32 31 30 30 29
39 38 37 36 36 36 35 35 34 32 32 32 32 33 34 34 34 33 33 33 33 33 33 33 32 32 32 32 32 32 31 31 31 30 29 29 28 28
36 36 35 35 34 34 33 32 32 31 32 32 33 33 34 34 34 33 33 33 32 32 32 32 31 31 31 31 31 30 30 30 30 29 28 28 28 27

GEFSNE_500_meanwind_150.txt.gz
Wind_Speed
15 15 14 14 15 15 16 16 16 16 17 18 18 19 20 21 20 21 21 22 22 23 24 25 25 26 27 28 27 28 28 28 29 30 30 31 31 32
15 15 15 16 16 16 17 17 17 18 18 19 20 20 21 22 22 23 23 24 24 24 25 25 26 27 29 29 29 29 30 30 31 31 31 31 31 32
17 17 17 17 17 18 18 18 19 19 18 20 21 22 22 23 23 23 24 24 25 26 26 26 28 29 29 29 29 30 30 30 30 30 30 30 31 32
17 18 19 19 19 19 20 20 20 20 20 20 21 22 23 23 24 24 24 25 26 27 27 27 28 28 28 28 29 29 29 29 30 31 31 31 32 33
18 18 19 19 20 20 21 21 21 22 22 21 22 23 25 25 25 25 25 26 26 27 27 27 27 28 28 28 29 29 30 31 32 32 32 33 34 34
19 19 20 20 20 21 21 22 22 22 23 23 23 24 25 26 26 26 27 27 28 28 28 28 28 28 29 29 29 30 32 33 33 33 34 34 34 34
20 21 21 21 21 21 21 22 23 23 24 25 25 25 26 26 27 28 28 29 29 29 29 29 28 29 29 30 31 32 33 33 33 33 34 34 35 36
21 22 22 22 22 22 22 23 23 24 25 26 26 26 27 27 28 29 29 30 29 30 31 30 30 30 30 31 32 33 33 33 33 33 34 35 37 37
20 21 22 22 22 23 23 24 24 25 26 27 27 28 28 28 29 29 30 30 30 31 31 31 31 32 32 32 33 33 33 34 34 35 35 37 37 37
20 21 22 22 23 24 25 25 25 26 27 28 28 28 28 29 29 30 31 32 31 30 31 32 33 34 34 34 33 32 33 34 35 36 37 37 37 36
22 23 23 24 24 25 26 26 27 28 29 29 29 29 30 30 30 31 32 32 32 31 32 33 33 34 34 33 33 33 34 35 35 36 36 36 35 35
23 24 24 24 25 27 28 28 29 29 29 30 30 31 31 32 33 33 33 33 33 33 33 34 34 34 33 33 34 35 35 36 36 36 35 35 34 35
25 25 26 26 27 28 28 29 30 30 30 30 31 31 32 33 34 34 34 34 34 34 34 34 34 34 34 35 35 35 35 35 35 34 33 34 34 34
26 27 27 28 28 28 29 30 30 31 31 31 32 32 33 33 34 34 35 34 34 34 34 34 34 34 35 35 35 34 34 33 33 33 33 34 34 34
29 29 29 29 30 30 31 32 32 32 32 32 33 33 34 34 34 34 35 35 35 35 35 35 34 34 35 35 35 34 33 32 32 33 34 34 34 34
31 32 32 32 32 32 33 33 33 33 34 34 34 34 35 35 34 34 35 35 35 35 35 34 34 34 33 33 33 33 33 33 34 34 34 35 35 35
33 33 33 34 34 34 34 34 35 34 34 34 34 34 35 34 35 35 35 34 35 34 34 34 34 33 33 33 34 33 33 34 35 35 34 34 34 34
34 35 35 35 35 35 35 36 36 35 34 34 35 35 35 35 35 35 34 34 34 33 34 33 33 33 33 33 33 33 34 34 34 34 34 34 33 33
35 36 36 36 37 36 36 36 36 36 36 36 36 36 36 36 35 35 34 34 34 34 34 33 33 33 33 34 33 33 33 34 34 34 34 33 32 32
37 37 36 37 37 37 36 36 36 36 36 35 35 36 36 35 34 33 33 33 33 34 33 32 33 33 33 33 33 33 34 34 34 33 33 32 32 31
37 37 36 36 36 36 36 36 36 36 35 35 35 34 34 33 32 32 33 33 33 33 34 33 33 32 32 32 33 33 33 33 32 32 31 31 31 30
36 36 36 35 35 35 35 36 36 35 34 34 34 33 33 32 32 33 33 33 33 33 32 32 32 32 32 33 32 32 31 31 31 30 30 30 30 29
35 35 35 35 35 35 35 35 35 34 34 34 33 33 33 34 34 33 33 33 33 32 32 32 31 31 31 30 30 30 30 30 30 30 29 29 29 29